[{"header": {"parameterCategory": 1, "parameterNumber": 2, "dx": 0.06612293990616946, "dy": 0.0552356325346848, "nx": 98, "ny": 59, "la1": 35.046912555036876, "la2": 31.78801023549047, "lo1": -121.43107172385933, "lo2": -114.95102361305473, "refTime": "2026042413"}, "data": [16.54, 16.54, 16.54, 16.54, 16.54, 16.54, 16.54, 16.54, 16.54, 16.54, 16.54, 16.54, 16.54, 16.54, 16.54, 16.99, 16.99, 16.99, 16.99, 16.99, 16.99, 16.99, 17.43, 17.43, 17.43, 17.43, 17.43, 17.43, 17.43, 17.88, 17.88, 17.88, 17.88, 17.88, 17.88, 17.88, 17.88, 17.88, 17.88, 17.88, 17.88, 17.88, 17.88, 17.88, 17.88, 18.33, 18.33, 18.33, 18.33, 18.33, 18.33, 18.33, 18.33, 18.78, 18.78, 18.78, 18.78, 19.22, 19.22, 19.22, 19.22, 19.22, 18.78, 18.78, 18.33, 18.33, 18.33, 18.33, 18.78, 18.78, 19.22, 19.22, 19.22, 19.67, 19.67, 19.67, 19.67, 19.67, 19.67, 19.67, 19.22, 19.22, 19.22, 19.22, 19.22, 19.22, 19.22, 19.22, 19.22, 19.22, 19.22, 19.22, 19.22, 19.22, 19.22, 19.67, 20.12, 20.12, 16.09, 16.09, 16.09, 16.09, 16.54, 16.54, 16.54, 16.54, 16.54, 16.54, 16.54, 16.54, 16.54, 16.54, 16.54, 16.99, 16.99, 16.99, 16.99, 16.99, 16.99, 17.43, 17.43, 17.43, 17.43, 17.43, 17.43, 17.43, 17.43, 17.88, 17.88, 17.88, 17.88, 17.88, 17.88, 17.88, 17.88, 17.43, 17.88, 17.88, 17.88, 17.88, 17.88, 17.88, 17.88, 17.88, 18.33, 18.33, 18.33, 18.33, 18.33, 18.33, 18.33, 18.33, 18.78, 18.78, 18.78, 18.78, 19.22, 19.22, 19.22, 18.78, 18.78, 18.33, 18.33, 18.33, 18.33, 18.33, 18.33, 18.78, 18.78, 19.22, 19.22, 19.67, 19.67, 19.67, 19.67, 19.67, 19.67, 19.67, 19.22, 19.22, 19.22, 19.22, 19.22, 19.22, 19.22, 19.22, 19.22, 19.22, 19.22, 19.22, 19.22, 19.22, 19.22, 19.67, 20.12, 20.12, 16.09, 16.09, 16.09, 16.09, 16.54, 16.54, 16.54, 16.54, 16.54, 16.54, 16.54, 16.54, 16.54, 16.54, 16.54, 16.99, 16.99, 16.99, 16.99, 16.99, 16.99, 16.99, 17.43, 17.43, 17.43, 17.43, 17.43, 17.43, 17.43, 17.43, 17.43, 17.88, 17.88, 17.88, 17.43, 17.43, 17.43, 17.43, 17.43, 17.88, 17.88, 17.88, 17.88, 17.88, 17.88, 17.88, 18.33, 18.33, 18.33, 18.33, 18.33, 18.33, 18.33, 18.33, 18.33, 18.33, 18.33, 18.78, 18.78, 18.78, 18.78, 18.78, 18.33, 18.33, 17.88, 17.88, 17.88, 17.88, 17.88, 18.33, 18.78, 19.22, 19.22, 19.67, 19.67, 19.67, 19.67, 19.67, 19.67, 19.22, 19.22, 19.22, 19.22, 19.22, 19.22, 19.22, 18.78, 19.22, 19.22, 18.78, 19.22, 19.22, 18.78, 19.22, 19.22, 19.67, 19.67, 20.12, 16.09, 16.09, 16.09, 16.54, 16.54, 16.54, 16.54, 16.54, 16.54, 16.54, 16.54, 16.54, 16.54, 16.54, 16.54, 16.99, 16.99, 16.99, 16.99, 16.99, 16.99, 16.99, 17.43, 17.43, 17.43, 17.43, 17.43, 17.43, 17.43, 17.43, 17.43, 17.43, 17.43, 17.43, 17.43, 17.43, 17.43, 17.43, 17.43, 17.88, 17.88, 17.43, 17.43, 17.43, 17.88, 17.88, 18.33, 18.33, 18.33, 18.33, 18.33, 18.33, 18.33, 18.33, 18.33, 18.33, 18.33, 18.33, 18.78, 18.78, 18.78, 18.78, 18.33, 17.88, 17.88, 17.88, 17.88, 17.88, 17.88, 17.88, 18.33, 18.78, 19.22, 19.22, 19.22, 19.67, 19.67, 19.67, 19.67, 19.22, 18.78, 18.78, 18.78, 19.22, 19.22, 18.78, 18.78, 18.78, 18.78, 18.78, 18.78, 18.78, 18.78, 18.78, 19.22, 19.22, 19.67, 19.67, 16.09, 16.09, 16.54, 16.54, 16.54, 16.54, 16.54, 16.54, 16.54, 16.54, 16.54, 16.54, 16.54, 16.54, 16.54, 16.99, 16.99, 16.99, 16.99, 16.99, 16.99, 16.99, 16.99, 17.43, 17.43, 17.43, 17.43, 17.43, 17.43, 17.43, 17.43, 17.43, 17.43, 17.43, 17.43, 17.43, 17.43, 17.43, 17.43, 17.88, 17.43, 17.43, 17.43, 17.43, 17.88, 17.88, 17.88, 17.88, 17.88, 17.88, 17.88, 17.88, 17.88, 17.88, 17.88, 17.88, 18.33, 18.33, 18.33, 18.33, 18.33, 18.33, 17.88, 17.88, 17.88, 17.43, 17.88, 17.88, 17.88, 17.88, 18.33, 18.78, 19.22, 19.22, 19.22, 19.22, 19.67, 19.67, 19.22, 19.22, 18.78, 18.78, 19.22, 19.22, 18.78, 18.78, 18.78, 18.78, 18.78, 18.33, 18.33, 18.33, 18.78, 18.78, 18.78, 19.22, 19.67, 19.67, 16.54, 16.54, 16.54, 16.54, 16.54, 16.54, 16.54, 16.54, 16.54, 16.54, 16.54, 16.54, 16.54, 16.54, 16.54, 16.99, 16.99, 16.99, 16.99, 16.99, 16.99, 16.99, 16.99, 16.99, 17.43, 17.43, 17.43, 17.43, 17.43, 17.43, 17.43, 17.43, 17.43, 17.43, 17.43, 17.43, 17.43, 17.43, 17.43, 17.43, 17.43, 17.43, 17.43, 17.43, 17.43, 17.88, 17.88, 17.88, 17.88, 17.88, 17.88, 17.88, 17.88, 17.88, 17.88, 17.88, 17.88, 17.88, 17.88, 18.33, 18.33, 17.88, 17.88, 17.88, 17.43, 17.43, 17.88, 17.88, 17.88, 17.88, 18.33, 18.33, 18.78, 19.22, 19.67, 19.22, 19.22, 19.22, 19.22, 19.22, 19.22, 19.22, 19.22, 19.22, 18.78, 18.78, 18.33, 18.33, 18.33, 18.33, 18.33, 18.33, 18.78, 18.78, 18.78, 19.22, 19.22, 19.67, 16.54, 16.54, 16.54, 16.54, 16.54, 16.54, 16.54, 16.54, 16.54, 16.54, 16.54, 16.54, 16.54, 16.54, 16.54, 16.99, 16.99, 16.99, 16.99, 16.99, 16.99, 16.99, 16.99, 16.99, 16.99, 16.99, 16.99, 16.99, 16.99, 16.99, 16.99, 17.43, 17.43, 17.43, 17.43, 17.43, 17.43, 17.43, 17.43, 17.43, 17.43, 17.43, 17.43, 17.43, 17.43, 17.88, 17.88, 17.88, 17.88, 17.88, 17.88, 17.88, 17.88, 17.88, 17.88, 17.88, 17.88, 17.88, 17.88, 17.88, 17.88, 17.88, 17.88, 17.43, 17.43, 17.43, 17.88, 17.88, 17.88, 17.88, 17.88, 18.33, 18.33, 18.78, 19.22, 19.67, 19.22, 19.22, 19.22, 19.22, 19.67, 19.67, 19.22, 19.22, 18.78, 18.33, 18.33, 18.33, 18.33, 18.33, 18.33, 18.33, 18.78, 18.78, 18.78, 19.22, 19.22, 19.22, 16.54, 16.54, 16.54, 16.54, 16.54, 16.54, 16.54, 16.54, 16.54, 16.54, 16.54, 16.54, 16.54, 16.54, 16.54, 16.54, 16.99, 16.99, 16.99, 16.99, 16.99, 16.99, 16.99, 16.99, 16.99, 16.99, 16.99, 16.99, 16.99, 16.99, 17.43, 17.43, 17.43, 17.43, 17.43, 16.99, 16.99, 17.43, 17.43, 17.43, 16.99, 16.99, 16.99, 17.43, 17.43, 17.43, 17.88, 17.88, 17.88, 17.88, 17.43, 17.43, 17.43, 17.43, 17.43, 17.43, 17.43, 17.43, 17.43, 17.43, 17.88, 17.88, 17.88, 17.88, 17.43, 17.43, 17.43, 17.88, 17.88, 17.88, 17.43, 17.88, 17.88, 18.78, 19.22, 19.67, 19.22, 19.22, 19.22, 19.22, 19.67, 19.67, 19.22, 18.78, 18.33, 18.33, 17.88, 18.33, 18.33, 18.33, 18.33, 18.33, 18.78, 18.78, 18.78, 19.22, 19.22, 19.22, 16.54, 16.54, 16.54, 16.54, 16.54, 16.54, 16.54, 16.54, 16.54, 16.54, 16.54, 16.54, 16.54, 16.54, 16.54, 16.54, 16.99, 16.99, 16.99, 16.99, 16.99, 16.99, 16.99, 17.43, 16.99, 16.99, 16.99, 16.99, 16.99, 16.99, 16.99, 17.43, 17.43, 17.43, 16.99, 16.99, 16.99, 16.99, 16.99, 16.99, 16.99, 16.99, 16.99, 17.43, 17.43, 17.43, 17.43, 17.43, 17.43, 17.43, 17.43, 17.43, 17.43, 17.43, 17.43, 17.43, 17.43, 17.43, 17.43, 17.43, 17.43, 17.88, 17.88, 17.88, 17.43, 17.43, 17.43, 17.88, 17.88, 17.88, 17.43, 17.43, 17.88, 18.78, 19.22, 19.67, 19.67, 19.67, 19.22, 19.67, 19.22, 19.22, 19.22, 18.78, 18.33, 17.88, 17.88, 17.88, 17.88, 18.33, 18.33, 18.33, 18.78, 18.78, 18.78, 19.22, 19.22, 19.22, 16.54, 16.54, 16.54, 16.54, 16.54, 16.54, 16.54, 16.54, 16.54, 16.54, 16.54, 16.54, 16.54, 16.54, 16.54, 16.54, 16.99, 16.99, 16.99, 16.99, 16.99, 16.99, 16.99, 16.99, 16.99, 16.99, 16.99, 16.99, 17.43, 16.99, 16.99, 17.43, 17.43, 16.99, 16.99, 16.99, 16.99, 16.99, 16.99, 16.99, 16.99, 16.99, 16.99, 16.99, 16.99, 17.43, 17.43, 17.43, 17.43, 17.43, 17.43, 17.43, 17.43, 17.43, 17.43, 17.43, 17.43, 17.43, 17.43, 17.43, 17.88, 17.88, 17.88, 17.88, 17.43, 17.43, 17.43, 17.88, 17.88, 17.88, 17.88, 17.88, 18.33, 18.78, 19.22, 19.67, 19.67, 19.67, 19.67, 19.67, 19.22, 18.78, 18.78, 18.33, 17.88, 17.88, 17.88, 17.88, 17.88, 18.33, 18.33, 18.33, 18.78, 18.78, 18.78, 19.22, 19.22, 19.22, 16.54, 16.54, 16.54, 16.54, 16.54, 16.54, 16.54, 16.54, 16.54, 16.54, 16.54, 16.99, 16.99, 16.99, 16.99, 16.54, 16.99, 16.99, 16.99, 16.99, 17.43, 16.99, 16.99, 16.99, 16.99, 16.99, 16.99, 16.99, 16.99, 16.99, 16.99, 16.99, 17.43, 16.99, 16.99, 16.99, 16.99, 16.99, 16.99, 16.99, 16.99, 16.99, 16.99, 16.99, 16.99, 16.99, 16.99, 16.99, 16.99, 17.43, 17.43, 17.43, 17.43, 17.43, 17.43, 17.43, 16.99, 16.99, 17.43, 17.43, 17.88, 17.88, 17.88, 17.88, 17.88, 17.43, 17.43, 17.88, 17.88, 17.88, 17.88, 17.88, 18.33, 18.78, 19.22, 19.22, 19.67, 19.67, 19.67, 19.67, 19.22, 18.78, 18.33, 17.88, 17.88, 17.88, 17.88, 17.88, 18.33, 18.33, 18.33, 18.78, 18.78, 18.78, 18.78, 19.22, 19.22, 19.22, 16.54, 16.54, 16.54, 16.54, 16.54, 16.54, 16.54, 16.54, 16.99, 16.99, 16.99, 16.99, 16.99, 16.99, 16.99, 16.99, 16.99, 16.99, 16.99, 17.43, 17.43, 17.43, 16.99, 16.99, 16.99, 16.99, 16.99, 16.99, 16.99, 16.99, 16.99, 16.99, 16.99, 16.99, 16.99, 16.99, 16.99, 16.99, 16.99, 16.99, 16.99, 16.99, 16.99, 16.99, 16.99, 16.99, 16.99, 16.99, 16.99, 16.99, 16.99, 17.43, 17.43, 17.43, 17.43, 17.43, 16.99, 16.99, 17.43, 17.88, 17.88, 17.88, 17.88, 17.88, 17.88, 17.43, 17.43, 17.88, 17.88, 17.88, 17.88, 17.88, 18.33, 18.78, 19.22, 19.22, 19.67, 19.67, 19.22, 19.22, 19.22, 18.33, 17.88, 17.88, 17.88, 17.88, 18.33, 18.33, 18.33, 18.33, 18.78, 18.78, 19.22, 19.22, 18.78, 19.22, 19.22, 19.22, 16.54, 16.54, 16.54, 16.54, 16.54, 16.54, 16.99, 16.99, 16.99, 16.99, 16.99, 16.99, 16.99, 16.99, 16.99, 16.99, 16.99, 16.99, 16.99, 17.43, 17.43, 16.99, 16.99, 16.99, 16.99, 16.99, 16.99, 16.99, 16.99, 16.99, 16.99, 16.99, 16.99, 16.99, 16.99, 16.99, 16.99, 16.99, 16.99, 16.99, 16.99, 16.99, 16.99, 16.99, 16.99, 16.99, 16.99, 16.99, 16.99, 16.99, 16.99, 16.99, 16.99, 17.43, 17.43, 17.43, 16.99, 16.99, 17.43, 17.88, 17.88, 17.88, 17.88, 18.33, 17.88, 17.88, 17.88, 17.88, 17.88, 17.88, 17.88, 17.88, 18.33, 18.78, 19.22, 19.22, 19.22, 19.22, 19.22, 19.22, 18.78, 18.33, 18.33, 18.33, 18.33, 18.33, 18.78, 18.78, 18.78, 18.78, 18.78, 18.78, 19.22, 19.22, 19.22, 19.22, 19.22, 19.22, 16.54, 16.54, 16.54, 16.54, 16.99, 16.99, 16.99, 16.99, 16.99, 16.99, 16.99, 16.99, 16.99, 16.99, 16.99, 16.99, 16.99, 16.99, 17.43, 17.43, 17.43, 16.99, 16.99, 16.99, 16.99, 16.99, 16.99, 16.99, 16.99, 16.99, 16.99, 16.99, 16.99, 16.99, 16.99, 16.99, 16.99, 16.99, 16.99, 16.99, 16.99, 16.99, 16.99, 16.99, 16.99, 16.99, 16.99, 16.99, 16.99, 16.99, 16.99, 16.99, 17.43, 17.43, 17.43, 17.43, 17.43, 16.99, 17.43, 18.33, 18.33, 17.88, 17.88, 17.88, 18.33, 17.88, 17.88, 17.43, 17.43, 17.88, 17.88, 18.33, 18.33, 19.22, 19.22, 19.22, 19.22, 18.78, 18.78, 18.78, 18.78, 18.78, 18.78, 19.22, 18.78, 18.78, 18.78, 19.22, 18.78, 18.78, 18.78, 19.22, 19.22, 19.22, 19.22, 19.22, 19.22, 19.22, 16.54, 16.54, 16.99, 16.99, 16.99, 16.99, 16.99, 16.99, 16.99, 16.99, 16.99, 16.99, 16.99, 16.99, 16.99, 16.99, 16.99, 16.99, 17.43, 17.43, 17.43, 16.99, 16.99, 16.99, 16.99, 16.99, 16.99, 16.99, 16.99, 16.99, 16.99, 16.99, 16.99, 16.99, 16.99, 16.99, 16.99, 16.99, 16.99, 16.99, 16.54, 16.99, 16.99, 16.99, 16.99, 16.99, 16.99, 16.99, 16.99, 16.99, 16.99, 16.99, 17.43, 17.43, 17.43, 17.43, 17.43, 16.99, 16.99, 17.88, 18.33, 17.88, 17.88, 17.88, 18.33, 17.88, 17.88, 17.88, 17.88, 17.43, 17.43, 17.88, 18.33, 19.22, 19.22, 18.78, 18.78, 18.78, 18.78, 18.78, 18.78, 18.78, 19.22, 19.22, 19.22, 18.78, 18.78, 18.78, 19.22, 19.22, 19.22, 19.22, 19.22, 19.22, 19.22, 19.22, 19.22, 19.22, 16.99, 16.99, 16.99, 16.99, 16.99, 16.99, 16.99, 17.43, 17.43, 17.43, 17.43, 17.43, 16.99, 16.99, 16.99, 16.99, 16.99, 17.43, 17.43, 17.43, 17.43, 16.99, 16.99, 16.99, 16.99, 16.99, 16.99, 16.99, 16.99, 16.99, 16.99, 16.99, 16.99, 16.99, 16.99, 16.99, 16.99, 16.99, 16.99, 16.99, 16.99, 16.54, 16.99, 16.99, 16.99, 16.99, 16.99, 16.99, 16.99, 16.99, 16.99, 16.99, 17.43, 17.43, 17.43, 17.43, 17.43, 17.43, 16.99, 17.43, 17.88, 17.88, 17.88, 17.88, 17.88, 17.88, 17.88, 17.88, 17.88, 17.43, 17.43, 16.99, 18.33, 19.22, 19.22, 18.78, 18.78, 18.78, 18.78, 18.78, 18.78, 19.22, 19.22, 19.22, 19.22, 18.78, 18.78, 18.78, 19.22, 19.22, 19.22, 19.67, 19.22, 19.22, 19.22, 19.22, 19.22, 19.22, 16.99, 16.99, 16.99, 16.99, 16.99, 17.43, 17.43, 17.43, 17.43, 17.43, 17.43, 17.43, 17.43, 17.43, 16.99, 16.99, 17.43, 17.43, 17.43, 17.43, 17.43, 17.43, 17.43, 17.43, 16.99, 16.99, 16.99, 16.99, 16.99, 16.99, 16.99, 16.99, 16.99, 16.99, 16.99, 16.99, 16.99, 16.99, 16.99, 16.99, 16.99, 16.99, 16.99, 16.99, 16.99, 16.99, 16.99, 16.99, 16.99, 16.99, 16.99, 16.99, 16.99, 16.99, 17.43, 17.43, 17.43, 17.43, 17.43, 17.43, 17.43, 17.43, 17.88, 17.88, 17.88, 17.88, 17.88, 17.88, 17.88, 17.43, 16.99, 16.99, 18.33, 19.22, 19.22, 19.22, 19.22, 19.22, 18.78, 18.78, 18.78, 18.78, 19.22, 19.22, 19.22, 18.78, 18.78, 19.22, 19.22, 19.22, 19.22, 19.67, 19.22, 19.22, 19.22, 19.22, 19.22, 19.22, 17.43, 17.43, 17.43, 17.43, 17.43, 17.43, 17.43, 17.43, 17.43, 17.43, 17.43, 17.43, 17.43, 17.43, 17.43, 17.43, 17.43, 17.43, 17.43, 17.43, 17.43, 17.43, 17.43, 17.43, 16.99, 16.99, 16.99, 16.99, 16.99, 16.99, 16.99, 16.99, 16.99, 16.99, 16.99, 16.99, 16.99, 16.99, 16.99, 16.99, 16.99, 16.99, 16.99, 16.99, 16.99, 16.99, 16.99, 16.99, 16.99, 16.99, 16.99, 17.43, 17.43, 17.43, 17.43, 17.43, 17.43, 17.43, 17.43, 17.43, 17.43, 17.88, 17.88, 17.88, 17.88, 18.33, 18.33, 18.33, 17.88, 16.99, 16.54, 17.43, 18.78, 19.22, 19.22, 19.22, 19.22, 18.78, 18.78, 18.78, 18.78, 19.22, 19.22, 18.78, 18.78, 18.78, 19.22, 19.22, 19.22, 19.22, 19.22, 19.22, 19.22, 19.22, 19.22, 19.22, 18.78, 18.78, 17.43, 17.43, 17.43, 17.43, 17.43, 17.43, 17.43, 17.43, 17.43, 17.88, 17.88, 17.43, 17.43, 17.43, 17.43, 17.43, 17.43, 17.43, 17.43, 17.43, 17.43, 17.43, 17.43, 17.43, 16.99, 16.99, 16.99, 16.99, 16.99, 16.99, 16.99, 16.99, 16.99, 16.99, 16.99, 16.99, 16.99, 16.99, 16.99, 16.99, 16.99, 16.99, 16.99, 16.99, 16.99, 16.99, 16.99, 17.43, 17.43, 17.43, 17.43, 17.43, 17.43, 17.43, 17.43, 17.43, 17.88, 17.88, 17.88, 17.88, 17.88, 17.88, 17.88, 17.88, 17.88, 18.33, 18.33, 18.33, 17.88, 16.99, 16.54, 17.43, 18.33, 19.22, 19.22, 19.22, 18.78, 18.33, 18.33, 18.78, 19.22, 19.22, 19.22, 18.78, 18.78, 18.78, 19.22, 19.22, 19.22, 19.22, 18.78, 19.22, 19.22, 19.22, 19.22, 19.22, 18.78, 18.78, 17.43, 17.43, 17.43, 17.88, 17.88, 17.88, 17.88, 17.88, 17.88, 17.88, 17.88, 17.88, 17.88, 17.43, 17.43, 17.43, 17.43, 17.43, 17.43, 17.43, 17.43, 17.43, 17.43, 17.43, 17.43, 16.99, 17.43, 16.99, 16.99, 17.43, 17.43, 17.43, 17.43, 17.43, 17.43, 17.43, 16.99, 16.99, 16.99, 16.99, 16.99, 16.99, 16.99, 16.99, 16.99, 17.43, 17.43, 17.43, 17.43, 17.43, 17.43, 17.43, 17.88, 17.88, 17.88, 17.88, 17.88, 17.88, 17.88, 17.88, 17.88, 17.88, 17.88, 17.88, 17.88, 18.33, 18.33, 17.88, 17.88, 17.43, 16.99, 16.99, 17.88, 18.78, 19.22, 19.22, 18.78, 18.33, 18.78, 18.78, 19.22, 19.22, 19.22, 19.22, 18.78, 18.78, 18.78, 19.22, 19.22, 19.22, 19.22, 18.78, 19.22, 19.22, 19.22, 18.78, 18.78, 18.78, 17.88, 17.88, 17.88, 17.88, 17.88, 17.88, 17.88, 17.88, 17.88, 17.88, 17.88, 17.88, 17.88, 17.88, 17.88, 17.43, 17.43, 17.88, 17.88, 17.88, 17.88, 17.43, 17.43, 17.43, 17.43, 17.43, 17.43, 17.43, 17.43, 17.43, 17.43, 17.43, 17.43, 17.43, 17.43, 17.43, 17.43, 17.43, 17.43, 17.43, 17.43, 17.43, 17.43, 17.43, 17.43, 17.43, 17.43, 17.43, 17.43, 17.43, 17.88, 17.88, 17.88, 17.88, 17.88, 17.88, 17.88, 18.33, 18.33, 18.33, 18.33, 18.33, 17.88, 17.88, 18.33, 18.33, 18.33, 18.33, 17.88, 17.88, 17.43, 17.43, 17.88, 19.22, 19.67, 19.22, 18.33, 18.78, 18.78, 18.78, 18.78, 19.22, 19.22, 19.22, 18.78, 18.78, 18.78, 18.78, 18.78, 19.22, 19.22, 19.22, 19.22, 19.22, 19.22, 18.78, 18.78, 18.78, 17.88, 17.88, 17.88, 17.88, 17.88, 17.88, 17.88, 17.88, 17.88, 17.88, 17.88, 17.88, 17.88, 17.88, 17.88, 17.88, 17.88, 17.88, 17.88, 17.88, 17.88, 17.88, 17.43, 17.43, 17.43, 17.43, 17.43, 17.43, 17.43, 17.43, 17.43, 17.43, 17.43, 17.43, 17.43, 17.43, 17.43, 17.43, 17.43, 17.43, 17.43, 17.43, 17.43, 17.43, 17.43, 17.43, 17.43, 17.43, 17.88, 17.88, 17.88, 17.88, 17.88, 17.88, 18.33, 18.33, 18.33, 17.88, 18.33, 18.33, 18.33, 18.33, 18.33, 18.33, 18.33, 18.33, 18.33, 18.33, 18.33, 17.88, 17.88, 17.43, 17.88, 19.22, 19.22, 18.33, 18.78, 18.78, 18.78, 18.78, 18.78, 19.22, 19.22, 19.22, 18.78, 18.78, 18.78, 18.78, 18.78, 19.22, 19.67, 19.22, 19.22, 19.22, 19.22, 18.78, 18.78, 18.78, 18.33, 18.33, 18.33, 18.33, 18.33, 18.33, 18.33, 18.33, 18.33, 18.33, 18.33, 18.33, 18.33, 18.33, 17.88, 17.88, 17.88, 17.88, 17.88, 17.88, 17.88, 17.88, 17.88, 17.88, 17.88, 17.43, 17.43, 17.43, 17.43, 17.43, 17.43, 17.43, 17.43, 17.43, 17.43, 17.43, 17.43, 17.43, 17.43, 17.43, 17.43, 17.43, 17.43, 17.43, 17.43, 17.43, 17.88, 17.88, 17.88, 17.88, 17.88, 17.88, 18.33, 18.33, 18.33, 18.33, 18.33, 18.33, 18.33, 18.33, 18.33, 18.33, 18.33, 18.33, 18.33, 18.33, 18.33, 18.78, 18.33, 18.33, 18.33, 17.88, 18.78, 19.67, 19.22, 18.78, 18.78, 18.78, 18.78, 19.22, 18.78, 18.78, 18.78, 18.78, 18.78, 18.78, 18.78, 18.78, 18.78, 19.22, 19.22, 19.22, 18.78, 19.22, 18.78, 18.78, 18.78, 18.78, 18.33, 18.33, 18.33, 18.33, 18.33, 18.33, 18.33, 18.33, 18.33, 18.33, 18.33, 18.33, 18.33, 18.33, 18.33, 18.33, 18.33, 17.88, 18.33, 18.33, 17.88, 17.88, 17.88, 17.88, 17.88, 17.88, 17.43, 17.43, 17.43, 17.43, 17.88, 17.88, 17.88, 17.88, 17.88, 17.88, 17.88, 17.88, 17.88, 17.88, 17.88, 17.88, 17.88, 17.88, 17.88, 17.88, 17.88, 17.88, 17.88, 17.88, 18.33, 18.33, 18.33, 18.33, 18.33, 18.78, 18.33, 18.33, 18.33, 18.33, 18.78, 18.78, 18.33, 18.78, 18.78, 18.78, 18.78, 18.78, 18.78, 18.78, 18.78, 17.43, 18.33, 19.22, 18.78, 18.78, 18.78, 18.78, 18.78, 19.22, 19.22, 18.78, 18.33, 18.78, 18.78, 18.78, 18.78, 18.78, 18.78, 18.78, 19.22, 19.22, 18.78, 18.78, 18.78, 18.78, 18.78, 18.78, 18.78, 18.78, 18.78, 18.78, 18.78, 18.78, 18.78, 18.78, 18.78, 18.78, 18.78, 18.78, 18.78, 18.78, 18.33, 18.33, 18.33, 18.33, 18.33, 18.33, 18.33, 18.33, 18.33, 17.88, 17.88, 17.88, 17.88, 17.88, 17.88, 17.88, 17.88, 17.88, 17.88, 17.88, 17.88, 17.88, 17.88, 17.88, 17.88, 17.88, 17.88, 17.88, 17.88, 17.88, 17.88, 17.88, 17.88, 17.88, 18.33, 18.33, 18.33, 18.33, 18.33, 18.33, 18.78, 18.78, 18.78, 18.78, 18.33, 18.33, 18.78, 18.78, 18.78, 18.78, 18.78, 18.78, 18.78, 18.78, 18.78, 18.78, 18.33, 17.88, 17.88, 18.78, 18.78, 18.78, 18.78, 18.78, 19.22, 19.22, 19.22, 18.33, 18.33, 18.33, 18.78, 18.78, 18.78, 18.78, 18.78, 18.78, 18.78, 18.78, 18.78, 18.78, 18.78, 18.78, 18.78, 18.78, 18.78, 18.78, 18.78, 18.78, 18.78, 18.78, 18.78, 18.78, 18.78, 18.78, 18.78, 18.78, 18.78, 18.78, 18.78, 18.78, 18.78, 18.33, 18.33, 18.33, 18.33, 18.33, 18.33, 18.33, 18.33, 17.88, 17.88, 17.88, 17.88, 17.88, 17.88, 17.88, 17.88, 17.88, 17.88, 17.88, 17.88, 17.88, 17.88, 17.88, 17.88, 17.88, 17.88, 17.88, 18.33, 18.33, 18.33, 18.33, 18.33, 18.33, 18.33, 18.33, 18.78, 18.78, 18.78, 18.78, 18.78, 18.78, 18.78, 18.78, 18.33, 18.78, 19.22, 19.22, 19.22, 19.22, 19.22, 19.22, 18.78, 18.78, 18.33, 17.88, 17.88, 18.33, 18.78, 18.33, 18.78, 19.22, 19.67, 19.22, 18.78, 18.33, 18.33, 18.78, 18.78, 18.78, 18.78, 19.22, 18.78, 18.78, 18.33, 18.78, 18.78, 18.78, 18.78, 18.78, 18.33, 18.33, 19.22, 19.22, 19.22, 19.22, 19.22, 19.22, 19.22, 19.22, 19.22, 19.22, 19.22, 19.22, 19.22, 19.22, 18.78, 18.78, 18.78, 18.78, 18.78, 18.78, 18.78, 18.33, 18.33, 18.33, 18.33, 18.33, 17.88, 17.88, 17.88, 17.88, 17.88, 17.88, 17.88, 18.33, 18.33, 18.33, 18.33, 18.33, 18.33, 18.33, 18.33, 18.33, 18.33, 18.33, 18.33, 18.33, 18.33, 18.33, 18.33, 18.33, 18.78, 18.78, 18.78, 18.78, 18.78, 18.78, 19.22, 19.22, 19.22, 18.78, 18.78, 18.78, 19.22, 19.22, 19.22, 19.22, 19.22, 19.22, 19.22, 18.78, 18.78, 18.33, 18.33, 18.33, 18.78, 18.78, 18.78, 19.67, 19.67, 18.78, 18.33, 18.33, 18.78, 18.78, 18.78, 18.33, 18.78, 18.78, 18.78, 18.78, 18.78, 18.33, 18.78, 18.78, 18.78, 18.78, 18.33, 18.33, 19.67, 19.67, 19.67, 19.67, 19.67, 19.67, 19.67, 19.67, 19.67, 19.22, 19.22, 19.22, 19.22, 19.22, 19.22, 19.22, 19.22, 18.78, 18.78, 18.78, 18.78, 18.78, 18.33, 18.33, 18.33, 18.33, 18.33, 18.33, 18.33, 17.88, 17.88, 17.88, 18.33, 18.33, 18.33, 18.33, 18.33, 18.33, 18.33, 18.33, 18.33, 18.33, 18.33, 18.33, 18.78, 18.78, 18.78, 18.33, 18.78, 18.78, 18.78, 18.78, 19.22, 19.22, 19.22, 19.22, 19.22, 19.22, 19.22, 19.22, 19.22, 19.22, 19.22, 19.22, 19.67, 19.67, 19.22, 19.22, 19.22, 18.78, 18.78, 18.33, 18.33, 18.33, 18.33, 18.33, 19.22, 19.67, 19.22, 18.78, 18.78, 18.78, 18.78, 18.78, 18.78, 18.78, 18.78, 18.78, 18.33, 18.33, 18.78, 18.33, 18.78, 18.78, 18.78, 18.33, 18.33, 18.33, 20.12, 20.12, 20.12, 20.12, 20.12, 19.67, 19.67, 19.67, 19.67, 19.67, 19.67, 19.67, 19.67, 19.67, 19.22, 19.22, 19.22, 19.22, 19.22, 18.78, 18.78, 18.78, 18.78, 18.33, 18.33, 18.33, 18.33, 18.33, 18.33, 18.33, 18.33, 18.33, 18.33, 18.33, 18.33, 18.33, 18.33, 18.33, 18.33, 18.33, 18.33, 18.33, 18.78, 18.78, 18.78, 18.78, 18.78, 18.78, 18.78, 18.78, 18.78, 19.22, 19.22, 19.22, 19.22, 19.22, 19.22, 19.22, 19.67, 19.67, 19.22, 19.22, 19.22, 19.67, 19.67, 19.67, 19.67, 19.67, 19.67, 19.22, 18.78, 18.33, 18.33, 18.33, 18.33, 18.78, 19.67, 19.22, 18.78, 18.78, 19.22, 18.78, 18.78, 18.78, 18.78, 18.78, 18.78, 18.33, 18.33, 18.33, 18.78, 18.33, 18.33, 18.78, 18.33, 18.33, 18.33, 18.33, 20.12, 20.12, 20.12, 20.12, 20.12, 20.12, 20.12, 20.12, 20.12, 20.12, 20.12, 19.67, 19.67, 19.67, 19.67, 19.67, 19.22, 19.22, 19.22, 19.22, 18.78, 18.78, 18.78, 18.78, 18.78, 18.78, 18.33, 18.33, 18.33, 18.33, 18.33, 18.33, 18.33, 18.33, 18.33, 18.33, 18.33, 18.78, 18.78, 18.78, 18.78, 18.78, 18.78, 18.78, 19.22, 18.78, 18.78, 19.22, 19.22, 19.22, 19.22, 19.67, 19.22, 19.22, 19.67, 19.67, 19.67, 19.67, 19.67, 19.67, 19.67, 19.22, 19.67, 20.12, 19.67, 19.67, 19.67, 19.22, 19.67, 19.22, 18.78, 18.33, 17.88, 18.33, 18.78, 19.22, 19.67, 19.22, 18.33, 18.78, 19.22, 19.22, 18.78, 18.78, 18.78, 18.78, 18.78, 18.33, 18.33, 18.33, 18.33, 18.33, 18.33, 18.33, 18.33, 18.33, 17.88, 17.88, 20.56, 20.56, 20.56, 20.56, 20.56, 20.56, 20.56, 20.56, 20.56, 20.12, 20.12, 20.12, 20.12, 19.67, 19.67, 19.67, 19.67, 19.22, 19.22, 19.22, 19.22, 19.22, 18.78, 18.78, 18.78, 18.78, 18.78, 18.78, 18.78, 18.78, 18.78, 18.78, 18.33, 18.33, 18.33, 18.33, 18.78, 18.78, 18.78, 18.78, 18.78, 18.78, 18.78, 19.22, 19.22, 19.22, 19.22, 19.22, 19.67, 19.67, 19.67, 19.67, 19.67, 19.67, 19.67, 19.67, 19.67, 19.67, 19.67, 19.67, 19.67, 19.67, 20.12, 20.12, 20.12, 20.12, 19.67, 19.22, 19.22, 19.22, 19.22, 18.78, 17.88, 17.88, 18.78, 19.22, 19.22, 19.22, 18.78, 18.33, 19.22, 19.22, 18.78, 18.33, 18.33, 18.33, 18.33, 18.33, 18.33, 18.33, 18.33, 18.33, 17.88, 17.88, 17.88, 17.88, 17.88, 17.88, 21.01, 21.01, 21.01, 21.01, 21.01, 21.01, 20.56, 20.56, 20.56, 20.56, 20.56, 20.12, 20.12, 20.12, 19.67, 19.67, 19.67, 19.67, 19.22, 19.22, 19.22, 19.22, 19.22, 19.22, 18.78, 18.78, 18.78, 18.78, 18.78, 18.78, 18.78, 18.78, 18.78, 18.78, 18.78, 18.78, 18.78, 18.78, 18.78, 18.78, 18.78, 19.22, 19.22, 19.22, 19.22, 19.22, 19.22, 19.67, 19.67, 19.67, 19.67, 20.12, 20.12, 20.12, 20.12, 19.67, 19.67, 20.12, 20.12, 20.12, 20.12, 20.12, 20.12, 20.12, 20.12, 20.12, 20.12, 19.67, 18.78, 18.78, 19.22, 19.22, 18.33, 17.43, 18.33, 19.22, 19.22, 19.22, 18.78, 18.78, 19.22, 19.22, 18.78, 18.33, 17.88, 17.88, 17.88, 18.33, 18.33, 18.33, 18.33, 17.88, 17.88, 17.43, 17.88, 17.88, 17.88, 17.88, 21.01, 21.01, 21.01, 21.01, 21.01, 21.01, 21.01, 21.01, 20.56, 20.56, 20.56, 20.56, 20.12, 20.12, 20.12, 19.67, 19.67, 19.67, 19.67, 19.67, 19.67, 19.22, 19.22, 19.22, 19.22, 19.22, 19.22, 18.78, 18.78, 18.78, 18.78, 18.78, 18.78, 18.78, 18.78, 18.78, 18.78, 18.78, 19.22, 19.22, 19.22, 19.22, 19.22, 19.22, 19.67, 19.67, 19.67, 19.67, 19.67, 20.12, 20.12, 20.12, 20.12, 20.12, 20.12, 20.12, 20.12, 20.12, 20.12, 20.12, 20.12, 20.12, 20.12, 20.12, 20.12, 20.12, 20.12, 20.12, 19.22, 19.22, 19.22, 19.22, 18.33, 17.88, 17.88, 19.22, 19.67, 19.22, 19.22, 19.22, 19.22, 19.22, 18.78, 18.33, 17.88, 17.88, 17.88, 18.33, 18.33, 18.33, 18.33, 17.88, 17.43, 17.43, 17.43, 17.43, 17.43, 17.43, 21.46, 21.46, 21.46, 21.46, 21.01, 21.01, 21.01, 21.01, 21.01, 20.56, 20.56, 20.56, 20.56, 20.12, 20.12, 20.12, 20.12, 20.12, 19.67, 19.67, 19.67, 19.67, 19.67, 19.22, 19.22, 19.22, 19.22, 19.22, 19.22, 19.22, 19.22, 19.22, 19.22, 19.22, 19.22, 19.22, 19.22, 19.22, 19.22, 19.22, 19.22, 19.67, 19.67, 19.67, 19.67, 19.67, 20.12, 20.12, 20.12, 20.12, 20.12, 20.12, 20.12, 20.12, 20.56, 20.56, 20.56, 20.56, 20.56, 20.56, 20.56, 20.56, 20.56, 20.12, 20.12, 20.12, 20.12, 19.67, 19.67, 19.22, 19.22, 18.78, 18.33, 17.88, 18.33, 18.78, 19.22, 19.22, 19.22, 19.67, 19.22, 18.78, 18.33, 17.88, 17.88, 17.88, 17.88, 18.33, 18.33, 17.88, 17.88, 17.88, 17.43, 17.43, 17.43, 17.43, 17.43, 17.43, 21.46, 21.46, 21.46, 21.46, 21.46, 21.46, 21.01, 21.01, 21.01, 21.01, 21.01, 20.56, 20.56, 20.56, 20.56, 20.12, 20.12, 20.12, 20.12, 19.67, 19.67, 19.67, 19.67, 19.67, 19.67, 19.67, 19.22, 19.22, 19.22, 19.22, 19.22, 19.22, 19.22, 19.22, 19.22, 19.22, 19.22, 19.22, 19.22, 19.67, 19.67, 19.67, 19.67, 19.67, 20.12, 20.12, 20.12, 20.12, 20.12, 20.12, 20.12, 20.12, 20.56, 20.56, 20.56, 20.56, 20.56, 20.56, 20.56, 20.56, 20.56, 20.56, 20.56, 20.12, 20.12, 20.12, 20.12, 19.67, 19.67, 19.22, 19.22, 18.78, 17.88, 17.88, 18.33, 18.78, 19.22, 19.22, 19.22, 19.67, 19.22, 18.78, 18.33, 17.88, 17.88, 17.88, 17.88, 17.88, 17.88, 17.88, 17.43, 17.43, 17.43, 17.43, 17.43, 17.43, 17.43, 17.43, 21.46, 21.46, 21.46, 21.46, 21.46, 21.46, 21.46, 21.01, 21.01, 21.01, 21.01, 21.01, 20.56, 20.56, 20.56, 20.56, 20.12, 20.12, 20.12, 20.12, 20.12, 19.67, 19.67, 19.67, 19.67, 19.67, 19.67, 19.67, 19.67, 19.67, 19.67, 19.67, 19.67, 19.67, 19.67, 19.67, 19.67, 19.67, 19.67, 19.67, 19.67, 19.67, 20.12, 20.12, 20.12, 20.12, 20.56, 20.56, 20.56, 20.56, 20.56, 20.56, 20.56, 20.56, 20.56, 21.01, 21.01, 21.01, 20.56, 20.56, 20.56, 20.56, 20.56, 20.56, 20.12, 20.12, 20.12, 19.67, 19.67, 19.22, 19.22, 18.78, 17.88, 17.88, 18.33, 18.78, 19.22, 19.22, 19.22, 19.22, 19.22, 18.33, 17.88, 17.88, 17.88, 17.88, 17.88, 17.88, 17.43, 17.43, 17.43, 17.43, 17.43, 17.43, 17.43, 17.43, 16.99, 16.99, 21.9, 21.9, 21.46, 21.46, 21.46, 21.46, 21.46, 21.46, 21.01, 21.01, 21.01, 21.01, 21.01, 21.01, 20.56, 20.56, 20.56, 20.12, 20.12, 20.12, 20.12, 20.12, 20.12, 20.12, 20.12, 20.12, 19.67, 19.67, 19.67, 19.67, 19.67, 19.67, 19.67, 19.67, 19.67, 19.67, 19.67, 19.67, 19.67, 20.12, 20.12, 20.12, 20.12, 20.12, 20.12, 20.56, 20.56, 20.56, 20.56, 20.56, 20.56, 20.56, 20.56, 21.01, 21.01, 21.01, 21.01, 21.01, 21.01, 21.01, 20.56, 20.56, 20.56, 20.56, 20.56, 20.56, 20.12, 19.67, 19.67, 19.67, 19.22, 18.78, 17.88, 17.43, 18.33, 19.22, 19.22, 19.22, 19.22, 19.22, 18.78, 18.33, 17.88, 17.88, 17.88, 17.88, 17.88, 17.88, 17.43, 17.43, 17.43, 17.43, 17.43, 17.43, 17.43, 17.43, 17.43, 17.43, 21.9, 21.9, 21.9, 21.46, 21.46, 21.46, 21.46, 21.46, 21.46, 21.01, 21.01, 21.01, 21.01, 21.01, 21.01, 20.56, 20.56, 20.56, 20.56, 20.12, 20.12, 20.12, 20.12, 20.12, 20.12, 20.12, 20.12, 20.12, 20.12, 20.12, 20.12, 20.12, 20.12, 20.12, 20.12, 20.12, 20.12, 20.12, 20.12, 20.12, 20.12, 20.12, 20.12, 20.12, 20.56, 20.56, 20.56, 20.56, 20.56, 20.56, 20.56, 20.56, 21.01, 21.01, 21.01, 21.01, 21.01, 21.01, 21.01, 21.01, 21.01, 20.56, 20.56, 20.56, 20.56, 20.56, 20.12, 19.67, 19.67, 19.67, 19.22, 18.78, 17.88, 17.43, 17.88, 19.22, 19.22, 19.22, 19.22, 19.22, 18.78, 17.88, 17.88, 17.88, 17.88, 17.88, 17.88, 17.43, 17.43, 17.43, 16.99, 17.43, 17.43, 17.43, 17.43, 17.43, 17.43, 17.43, 21.9, 21.9, 21.9, 21.9, 21.46, 21.46, 21.46, 21.46, 21.46, 21.46, 21.46, 21.46, 21.01, 21.01, 21.01, 21.01, 21.01, 20.56, 20.56, 20.56, 20.56, 20.56, 20.56, 20.12, 20.12, 20.12, 20.12, 20.12, 20.12, 20.12, 20.12, 20.12, 20.12, 20.12, 20.12, 20.12, 20.12, 20.12, 20.12, 20.12, 20.12, 20.12, 20.56, 20.56, 20.56, 20.56, 21.01, 20.56, 20.56, 20.56, 20.56, 21.01, 21.01, 21.01, 21.01, 21.01, 21.01, 21.01, 21.01, 21.01, 21.01, 20.56, 20.56, 20.56, 20.56, 20.12, 20.12, 20.12, 19.67, 19.22, 19.22, 19.22, 18.33, 17.43, 17.43, 18.78, 19.67, 19.22, 19.22, 18.78, 18.78, 18.33, 17.88, 17.88, 17.88, 17.88, 17.88, 17.88, 17.43, 17.43, 16.99, 16.99, 17.43, 17.43, 17.43, 17.43, 17.43, 17.43, 21.9, 21.9, 21.9, 21.9, 21.9, 21.9, 21.46, 21.46, 21.46, 21.46, 21.46, 21.46, 21.46, 21.46, 21.01, 21.01, 21.01, 21.01, 20.56, 20.56, 20.56, 20.56, 20.56, 20.56, 20.56, 20.56, 20.56, 20.56, 20.56, 20.56, 20.56, 20.56, 20.56, 20.56, 20.56, 20.56, 20.56, 20.56, 20.56, 20.56, 20.56, 20.56, 20.56, 20.56, 20.56, 20.56, 21.01, 21.01, 21.01, 21.01, 21.01, 21.01, 21.01, 21.01, 21.01, 21.01, 21.01, 21.01, 21.01, 21.01, 21.01, 21.01, 20.56, 20.56, 20.56, 20.12, 20.12, 20.12, 19.67, 19.22, 19.22, 19.22, 18.33, 17.88, 17.43, 17.88, 18.78, 19.22, 19.22, 18.78, 18.78, 18.33, 18.33, 17.88, 17.88, 17.43, 17.88, 17.88, 17.43, 17.43, 17.43, 17.43, 17.43, 17.43, 17.43, 17.43, 17.43, 17.43, 21.9, 21.9, 21.9, 21.9, 21.9, 21.9, 21.9, 21.46, 21.9, 21.46, 21.46, 21.46, 21.46, 21.46, 21.46, 21.46, 21.01, 21.01, 21.01, 21.01, 20.56, 20.56, 20.56, 20.56, 20.56, 20.56, 20.56, 20.56, 20.56, 20.56, 20.56, 20.56, 20.56, 20.56, 20.56, 20.56, 20.56, 20.56, 20.56, 20.56, 20.56, 20.56, 20.56, 20.56, 21.01, 21.01, 21.01, 21.01, 21.01, 21.01, 21.01, 21.01, 21.01, 21.01, 21.01, 21.01, 21.01, 21.01, 21.01, 21.01, 21.01, 20.56, 20.56, 20.56, 20.56, 20.12, 20.12, 20.12, 19.67, 19.67, 19.22, 19.22, 18.78, 18.33, 17.88, 17.43, 17.88, 18.78, 19.22, 19.22, 18.78, 18.33, 18.33, 17.88, 17.88, 17.88, 17.43, 17.43, 17.43, 17.43, 17.43, 17.43, 17.43, 17.43, 17.43, 17.43, 17.43, 17.43, 21.9, 21.9, 21.9, 21.9, 21.9, 21.9, 21.9, 21.9, 21.9, 21.9, 21.9, 21.46, 21.46, 21.46, 21.46, 21.46, 21.46, 21.01, 21.01, 21.01, 21.01, 21.01, 21.01, 20.56, 20.56, 20.56, 20.56, 20.56, 20.56, 20.56, 20.56, 20.56, 20.56, 20.56, 20.56, 20.56, 20.56, 20.56, 20.56, 20.56, 20.56, 20.56, 21.01, 21.01, 21.01, 21.01, 21.01, 21.01, 21.01, 21.01, 21.01, 21.01, 21.01, 21.01, 21.01, 21.01, 21.01, 21.01, 21.01, 21.01, 21.01, 21.01, 20.56, 20.56, 20.56, 20.12, 20.12, 20.12, 20.12, 19.67, 19.22, 19.22, 18.78, 18.33, 18.33, 17.88, 17.88, 18.33, 19.22, 19.22, 18.78, 18.33, 18.33, 18.33, 17.88, 17.88, 17.43, 17.43, 17.43, 17.43, 17.43, 17.43, 17.43, 17.43, 17.43, 17.43, 17.43, 17.43, 22.35, 22.35, 22.35, 21.9, 21.9, 21.9, 21.9, 21.9, 21.9, 21.9, 21.9, 21.9, 21.9, 21.46, 21.46, 21.46, 21.46, 21.46, 21.46, 21.01, 21.01, 21.01, 21.01, 21.01, 21.01, 21.01, 20.56, 20.56, 20.56, 20.56, 20.56, 20.56, 21.01, 21.01, 21.01, 21.01, 21.01, 21.01, 21.01, 21.01, 21.01, 21.01, 21.01, 21.01, 21.01, 21.01, 21.46, 21.01, 21.01, 21.01, 21.01, 21.01, 21.01, 21.01, 21.01, 21.01, 21.01, 21.01, 21.01, 21.01, 21.01, 21.01, 20.56, 20.56, 20.56, 20.56, 20.12, 20.12, 20.12, 19.67, 19.22, 19.22, 19.22, 18.33, 18.33, 18.33, 17.88, 17.88, 18.78, 18.78, 18.78, 18.33, 18.33, 18.33, 18.33, 17.88, 17.43, 17.43, 17.43, 17.43, 17.43, 17.43, 17.43, 17.43, 17.43, 17.43, 17.43, 17.43, 22.35, 22.35, 22.35, 22.35, 22.35, 22.35, 22.35, 21.9, 21.9, 21.9, 21.9, 21.9, 21.9, 21.9, 21.46, 21.46, 21.46, 21.46, 21.46, 21.46, 21.01, 21.01, 21.01, 21.01, 21.01, 21.01, 21.01, 21.01, 21.01, 21.01, 21.01, 21.01, 21.01, 21.01, 21.01, 21.01, 21.01, 21.01, 21.01, 21.01, 21.01, 21.01, 21.01, 21.01, 21.46, 21.46, 21.46, 21.46, 21.46, 21.01, 21.01, 21.01, 21.01, 21.01, 21.01, 21.01, 21.01, 21.01, 21.01, 21.01, 21.01, 21.01, 20.56, 20.56, 20.56, 20.56, 20.12, 20.12, 20.12, 19.67, 19.67, 19.22, 19.22, 18.78, 18.33, 18.33, 17.88, 17.88, 18.33, 18.78, 18.78, 18.33, 18.78, 18.78, 18.33, 17.88, 17.43, 17.43, 17.43, 17.43, 17.43, 17.43, 17.43, 17.43, 17.43, 17.43, 17.43, 17.43, 22.35, 22.35, 22.35, 22.35, 22.35, 22.35, 22.35, 22.35, 22.35, 21.9, 21.9, 21.9, 21.9, 21.9, 21.9, 21.9, 21.46, 21.46, 21.46, 21.46, 21.46, 21.01, 21.01, 21.01, 21.01, 21.01, 21.01, 21.01, 21.01, 21.01, 21.01, 21.01, 21.01, 21.01, 21.01, 21.01, 21.01, 21.01, 21.01, 21.01, 21.01, 21.46, 21.46, 21.46, 21.46, 21.46, 21.46, 21.46, 21.46, 21.46, 21.01, 21.01, 21.01, 21.01, 21.01, 21.01, 21.01, 21.01, 21.01, 21.01, 21.01, 21.01, 20.56, 20.56, 20.56, 20.12, 20.12, 20.12, 19.67, 19.67, 19.67, 19.67, 19.22, 18.78, 18.78, 18.33, 17.88, 17.88, 18.33, 18.78, 18.33, 18.33, 19.22, 18.78, 18.33, 17.88, 17.43, 17.43, 17.43, 17.43, 17.43, 17.43, 17.43, 17.43, 17.43, 17.43, 17.43, 17.43, 22.35, 22.35, 22.35, 22.35, 22.35, 22.35, 22.35, 22.35, 22.35, 22.35, 21.9, 21.9, 21.9, 21.9, 21.9, 21.9, 21.9, 21.46, 21.46, 21.46, 21.46, 21.46, 21.01, 21.01, 21.01, 21.01, 21.01, 21.01, 21.01, 21.01, 21.01, 21.01, 21.01, 21.01, 21.01, 21.46, 21.46, 21.46, 21.46, 21.46, 21.46, 21.46, 21.46, 21.46, 21.46, 21.46, 21.46, 21.46, 21.46, 21.46, 21.01, 21.01, 21.01, 21.01, 21.01, 21.01, 21.01, 21.01, 21.01, 21.01, 21.01, 21.01, 20.56, 20.56, 20.56, 20.12, 20.12, 20.12, 20.12, 19.67, 19.67, 19.67, 19.22, 19.22, 18.78, 18.33, 18.33, 17.88, 17.88, 18.33, 18.33, 18.33, 19.22, 19.22, 18.33, 17.88, 17.43, 17.43, 17.43, 17.43, 17.43, 17.43, 17.43, 17.43, 17.88, 17.88, 17.88, 17.88, 22.35, 22.35, 22.8, 22.35, 22.35, 22.35, 22.35, 22.35, 22.35, 22.35, 22.35, 22.35, 21.9, 21.9, 21.9, 21.9, 21.9, 21.9, 21.46, 21.46, 21.46, 21.46, 21.46, 21.46, 21.01, 21.01, 21.01, 21.01, 21.01, 21.01, 21.01, 21.01, 21.46, 21.46, 21.46, 21.46, 21.46, 21.46, 21.46, 21.46, 21.46, 21.46, 21.46, 21.46, 21.46, 21.46, 21.46, 21.46, 21.46, 21.46, 21.46, 21.01, 21.01, 21.01, 21.01, 21.01, 21.01, 21.01, 21.01, 21.01, 21.01, 21.01, 20.56, 20.56, 20.56, 20.12, 20.12, 19.67, 20.12, 19.67, 19.67, 19.67, 19.22, 19.22, 18.78, 18.33, 18.33, 18.33, 17.88, 17.88, 17.88, 18.33, 18.78, 18.78, 18.78, 18.33, 16.99, 16.99, 16.99, 17.43, 17.88, 17.88, 17.88, 17.88, 17.88, 17.88, 17.88, 17.88, 22.8, 22.8, 22.8, 22.8, 22.35, 22.35, 22.35, 22.35, 22.35, 22.35, 22.35, 22.35, 22.35, 21.9, 21.9, 21.9, 21.9, 21.9, 21.9, 21.46, 21.46, 21.46, 21.46, 21.46, 21.46, 21.46, 21.46, 21.46, 21.46, 21.46, 21.46, 21.46, 21.46, 21.46, 21.46, 21.46, 21.46, 21.46, 21.46, 21.46, 21.46, 21.46, 21.46, 21.46, 21.46, 21.46, 21.46, 21.46, 21.46, 21.46, 21.46, 21.01, 21.01, 21.01, 21.01, 21.01, 21.01, 21.01, 21.01, 21.01, 21.01, 20.56, 20.56, 20.56, 20.12, 20.12, 20.12, 19.67, 19.67, 19.67, 19.67, 19.67, 19.22, 19.22, 18.78, 18.78, 18.33, 18.33, 17.88, 17.88, 17.88, 17.88, 18.33, 18.33, 18.78, 17.88, 16.99, 16.99, 16.99, 16.99, 17.43, 17.88, 17.88, 17.88, 17.88, 17.88, 17.88, 17.88, 22.8, 22.8, 22.8, 22.8, 22.8, 22.8, 22.35, 22.35, 22.35, 22.35, 22.35, 22.35, 22.35, 22.35, 21.9, 21.9, 21.9, 21.9, 21.9, 21.9, 21.46, 21.46, 21.46, 21.46, 21.46, 21.46, 21.46, 21.46, 21.46, 21.46, 21.46, 21.46, 21.46, 21.46, 21.46, 21.46, 21.46, 21.46, 21.9, 21.9, 21.9, 21.9, 21.9, 21.9, 21.9, 21.9, 21.9, 21.46, 21.46, 21.46, 21.46, 21.46, 21.01, 21.01, 21.01, 21.01, 21.01, 21.01, 21.01, 21.01, 21.01, 20.56, 20.56, 20.56, 20.12, 20.12, 20.12, 19.67, 19.67, 19.67, 19.67, 19.22, 19.22, 19.22, 19.22, 18.78, 18.33, 18.33, 18.33, 17.88, 17.43, 17.88, 17.88, 17.88, 19.22, 18.33, 16.99, 16.99, 17.43, 16.99, 17.43, 17.88, 17.88, 17.88, 17.88, 17.88, 17.88, 17.88, 22.8, 22.8, 22.8, 22.8, 22.8, 22.8, 22.8, 22.35, 22.35, 22.35, 22.35, 22.35, 22.35, 22.35, 22.35, 21.9, 21.9, 21.9, 21.9, 21.9, 21.9, 21.46, 21.46, 21.46, 21.46, 21.46, 21.46, 21.46, 21.46, 21.46, 21.46, 21.46, 21.46, 21.46, 21.46, 21.9, 21.9, 21.9, 21.9, 21.9, 21.9, 21.9, 21.9, 21.9, 21.9, 21.9, 21.9, 21.9, 21.46, 21.46, 21.46, 21.46, 21.01, 21.01, 21.01, 21.01, 21.01, 21.01, 21.01, 21.01, 20.56, 20.56, 20.56, 20.12, 20.12, 20.12, 20.12, 19.67, 19.67, 19.67, 19.67, 19.22, 19.22, 19.22, 19.22, 18.78, 18.78, 18.33, 18.33, 17.88, 17.88, 17.43, 17.43, 18.78, 19.22, 18.33, 17.43, 17.43, 17.43, 17.43, 16.99, 17.43, 17.88, 17.88, 17.88, 17.88, 17.88, 17.88, 22.8, 22.8, 22.8, 22.8, 22.8, 22.8, 22.8, 22.8, 22.8, 22.35, 22.35, 22.35, 22.35, 22.35, 22.35, 22.35, 21.9, 21.9, 21.9, 21.9, 21.9, 21.9, 21.9, 21.9, 21.9, 21.9, 21.46, 21.46, 21.46, 21.9, 21.9, 21.9, 21.9, 21.9, 21.9, 21.9, 21.9, 21.9, 21.9, 21.9, 21.9, 21.9, 21.9, 21.9, 21.9, 21.9, 21.9, 21.9, 21.9, 21.46, 21.46, 21.46, 21.01, 21.01, 21.01, 21.01, 21.01, 21.01, 21.01, 20.56, 20.56, 20.56, 20.56, 20.12, 20.12, 20.12, 19.67, 19.67, 19.67, 19.67, 19.67, 19.67, 19.22, 19.22, 19.22, 19.22, 18.78, 18.33, 18.33, 18.33, 17.88, 17.43, 17.43, 18.33, 18.78, 18.78, 17.88, 17.88, 17.88, 17.88, 17.43, 17.43, 17.43, 17.88, 17.88, 18.33, 18.33, 18.33, 22.8, 22.8, 22.8, 22.8, 22.8, 22.8, 22.8, 22.8, 22.8, 22.8, 22.8, 22.35, 22.35, 22.35, 22.35, 22.35, 22.35, 21.9, 21.9, 21.9, 21.9, 21.9, 21.9, 21.9, 21.9, 21.9, 21.9, 21.9, 21.9, 21.9, 21.9, 21.9, 21.9, 21.9, 21.9, 21.9, 21.9, 21.9, 21.9, 21.9, 21.9, 21.9, 21.9, 21.9, 21.9, 21.9, 21.9, 21.9, 21.9, 21.46, 21.46, 21.01, 21.01, 21.01, 21.01, 21.01, 21.01, 21.01, 20.56, 20.56, 20.56, 20.56, 20.56, 20.12, 20.12, 20.12, 19.67, 20.12, 20.12, 19.67, 19.67, 19.67, 19.67, 19.22, 19.22, 19.22, 18.78, 18.33, 18.33, 18.33, 18.33, 17.88, 17.43, 17.88, 18.78, 18.78, 18.33, 18.33, 18.33, 17.88, 17.43, 17.43, 17.43, 17.43, 17.88, 17.88, 17.88, 17.88, 22.8, 22.8, 22.8, 22.8, 22.8, 22.8, 22.8, 22.8, 22.8, 22.8, 22.8, 22.8, 22.35, 22.35, 22.35, 22.35, 22.35, 22.35, 22.35, 21.9, 21.9, 21.9, 21.9, 21.9, 21.9, 21.9, 21.9, 21.9, 21.9, 21.9, 21.9, 21.9, 21.9, 21.9, 21.9, 21.9, 21.9, 21.9, 21.9, 21.9, 21.9, 21.9, 21.9, 21.9, 21.9, 21.9, 21.9, 21.9, 21.46, 21.46, 21.46, 21.01, 21.01, 21.01, 21.01, 21.01, 21.01, 20.56, 20.56, 20.56, 20.56, 20.56, 20.56, 20.12, 20.12, 20.12, 20.12, 20.12, 20.12, 19.67, 19.67, 19.67, 19.67, 19.67, 19.22, 19.22, 19.22, 18.78, 18.33, 18.33, 18.33, 17.43, 17.43, 17.43, 18.33, 18.78, 18.78, 18.78, 18.33, 17.88, 17.88, 17.43, 17.43, 17.88, 17.88, 17.88, 17.88, 17.88, 22.8, 22.8, 22.8, 22.8, 22.8, 22.8, 22.8, 22.8, 22.8, 22.8, 22.8, 22.8, 22.8, 22.8, 22.35, 22.35, 22.35, 22.35, 22.35, 22.35, 22.35, 22.35, 21.9, 21.9, 21.9, 21.9, 21.9, 21.9, 21.9, 21.9, 21.9, 21.9, 21.9, 21.9, 21.9, 21.9, 21.9, 21.9, 21.9, 21.9, 21.9, 21.9, 21.9, 21.9, 21.9, 21.9, 21.9, 21.9, 21.46, 21.46, 21.01, 21.01, 21.01, 21.01, 21.01, 21.01, 21.01, 20.56, 20.56, 20.56, 20.56, 20.56, 20.56, 20.12, 20.12, 20.12, 20.12, 20.12, 20.12, 20.12, 19.67, 19.67, 19.67, 19.67, 19.22, 19.22, 19.22, 18.78, 18.78, 18.33, 17.88, 17.43, 17.43, 17.43, 17.88, 18.78, 19.22, 18.78, 18.33, 17.88, 17.88, 17.88, 17.43, 17.88, 17.88, 17.88, 17.88, 17.88, 22.8, 22.8, 22.8, 22.8, 22.8, 22.8, 22.8, 22.8, 22.8, 22.8, 22.8, 22.8, 22.8, 22.8, 22.8, 22.35, 22.35, 22.35, 22.35, 22.35, 22.35, 22.35, 22.35, 21.9, 21.9, 21.9, 21.9, 21.9, 21.9, 21.9, 21.9, 21.9, 21.9, 21.9, 21.9, 21.9, 21.9, 21.9, 21.9, 21.9, 21.9, 21.9, 21.9, 21.9, 21.9, 21.9, 21.9, 21.46, 21.46, 21.46, 21.01, 21.01, 21.01, 20.56, 21.01, 21.01, 20.56, 20.56, 20.56, 20.56, 20.56, 20.56, 20.56, 20.12, 20.12, 20.12, 20.12, 20.12, 20.12, 20.12, 19.67, 19.67, 19.67, 19.67, 19.67, 19.22, 19.22, 19.22, 18.78, 18.33, 17.88, 17.43, 17.43, 16.99, 17.88, 18.78, 18.78, 18.33, 17.88, 17.88, 17.88, 17.88, 17.43, 17.88, 17.88, 18.33, 18.33, 18.33, 23.25, 23.25, 23.25, 22.8, 22.8, 22.8, 22.8, 22.8, 22.8, 22.8, 22.8, 22.8, 22.8, 22.8, 22.8, 22.8, 22.8, 22.35, 22.35, 22.35, 22.35, 22.35, 22.35, 22.35, 21.9, 21.9, 21.9, 21.9, 21.9, 21.9, 21.9, 21.9, 21.9, 21.9, 21.9, 21.9, 21.9, 21.9, 21.9, 21.9, 21.9, 21.9, 21.9, 21.9, 21.9, 21.9, 21.9, 21.46, 21.46, 21.46, 21.01, 21.01, 21.01, 21.01, 21.01, 21.01, 21.01, 20.56, 20.56, 20.56, 20.56, 20.56, 20.56, 20.12, 20.12, 20.12, 20.12, 20.12, 20.12, 20.12, 20.12, 20.12, 19.67, 19.67, 19.67, 19.67, 19.22, 19.22, 18.78, 18.33, 17.88, 17.43, 16.99, 16.99, 17.43, 18.33, 18.78, 18.33, 17.88, 17.43, 17.43, 17.88, 17.88, 17.88, 18.33, 18.33, 18.33, 18.33, 23.25, 23.25, 23.25, 23.25, 23.25, 23.25, 23.25, 23.25, 22.8, 22.8, 22.8, 22.8, 22.8, 22.8, 22.8, 22.8, 22.8, 22.8, 22.35, 22.35, 22.35, 22.35, 22.35, 22.35, 21.9, 21.9, 21.9, 21.9, 21.9, 21.9, 21.9, 21.9, 21.9, 21.9, 21.9, 21.9, 21.9, 21.9, 21.9, 21.9, 21.9, 21.9, 21.9, 21.9, 21.9, 21.9, 21.46, 21.46, 21.46, 21.46, 21.01, 21.01, 21.01, 21.01, 21.01, 21.01, 20.56, 20.56, 20.56, 20.56, 20.56, 20.56, 20.56, 20.56, 20.12, 20.12, 20.12, 20.12, 20.12, 20.12, 20.12, 20.12, 19.67, 19.67, 19.67, 19.67, 19.22, 18.78, 18.78, 18.33, 17.88, 17.43, 16.99, 16.99, 17.43, 18.33, 18.78, 18.33, 17.88, 17.43, 17.43, 17.88, 17.88, 18.33, 18.78, 18.78, 18.78, 18.78, 23.25, 23.25, 23.25, 23.25, 23.25, 23.25, 23.25, 23.25, 22.8, 22.8, 22.8, 22.8, 22.8, 22.8, 22.8, 22.8, 22.8, 22.35, 22.35, 22.35, 22.35, 22.35, 22.35, 21.9, 21.9, 21.9, 21.9, 21.9, 21.9, 21.9, 21.9, 21.9, 21.46, 21.46, 21.46, 21.46, 21.46, 21.9, 21.9, 21.9, 21.9, 21.9, 21.9, 21.9, 21.9, 21.46, 21.46, 21.46, 21.46, 21.46, 21.01, 21.01, 21.01, 21.01, 21.01, 21.01, 20.56, 20.56, 20.56, 20.56, 20.56, 20.56, 20.56, 20.56, 20.56, 20.12, 20.12, 20.12, 20.12, 20.12, 20.12, 20.12, 19.67, 19.67, 19.67, 19.22, 19.22, 18.78, 18.33, 17.88, 17.88, 17.43, 16.99, 16.99, 16.99, 17.88, 18.33, 18.33, 17.88, 17.43, 17.43, 17.88, 18.33, 18.78, 18.78, 18.78, 18.78, 18.78, 23.25, 23.25, 23.25, 23.25, 23.25, 23.25, 23.25, 23.25, 22.8, 22.8, 22.8, 22.8, 22.8, 22.8, 22.8, 22.8, 22.8, 22.35, 22.35, 22.35, 22.35, 22.35, 22.35, 21.9, 21.9, 21.9, 21.9, 21.9, 21.9, 21.9, 21.9, 21.9, 21.46, 21.46, 21.46, 21.46, 21.46, 21.9, 21.9, 21.9, 21.9, 21.9, 21.9, 21.9, 21.9, 21.46, 21.46, 21.46, 21.46, 21.46, 21.01, 21.01, 21.01, 21.01, 21.01, 21.01, 20.56, 20.56, 20.56, 20.56, 20.56, 20.56, 20.56, 20.56, 20.56, 20.12, 20.12, 20.12, 20.12, 20.12, 20.12, 20.12, 19.67, 19.67, 19.67, 19.22, 18.78, 18.78, 18.33, 17.88, 17.88, 17.43, 16.99, 16.99, 16.99, 17.88, 18.33, 18.33, 17.88, 17.43, 17.88, 18.33, 18.78, 19.22, 19.22, 19.22, 19.22, 19.22]}, {"header": {"parameterCategory": 1, "parameterNumber": 3, "dx": 0.06612293990616946, "dy": 0.0552356325346848, "nx": 98, "ny": 59, "la1": 35.046912555036876, "la2": 31.78801023549047, "lo1": -121.43107172385933, "lo2": -114.95102361305473, "refTime": "2026042413"}, "data": [3.13, 3.13, 3.13, 3.13, 3.13, 3.13, 3.13, 3.13, 3.13, 3.13, 3.58, 3.58, 3.58, 3.58, 3.58, 4.02, 4.02, 4.02, 4.02, 4.02, 4.02, 4.47, 4.47, 4.47, 4.47, 4.47, 4.47, 4.47, 4.47, 4.47, 4.47, 4.47, 4.47, 4.47, 4.47, 4.47, 4.47, 4.47, 4.47, 4.47, 4.47, 4.47, 4.47, 4.47, 4.92, 4.92, 4.92, 5.36, 5.36, 5.81, 5.81, 5.81, 5.81, 5.81, 5.81, 6.26, 6.26, 6.26, 6.26, 6.26, 6.26, 6.26, 6.26, 6.71, 6.71, 7.15, 7.15, 7.15, 7.15, 7.15, 7.15, 7.15, 7.15, 6.71, 6.71, 6.26, 6.26, 6.26, 5.81, 5.81, 5.81, 5.81, 5.81, 5.81, 6.26, 6.26, 6.26, 6.26, 6.71, 6.71, 6.71, 6.71, 6.71, 6.71, 6.71, 6.71, 6.71, 7.15, 3.13, 3.13, 3.13, 3.13, 3.13, 3.13, 3.13, 3.13, 3.13, 3.13, 3.58, 3.58, 3.58, 3.58, 3.58, 4.02, 4.02, 4.02, 4.02, 4.02, 4.47, 4.47, 4.47, 4.47, 4.47, 4.47, 4.47, 4.47, 4.47, 4.47, 4.47, 4.47, 4.47, 4.47, 4.47, 4.47, 4.47, 4.47, 4.47, 4.47, 4.47, 4.47, 4.47, 4.92, 4.92, 4.92, 4.92, 5.36, 5.36, 5.36, 5.36, 5.36, 5.36, 5.81, 5.81, 5.81, 6.26, 6.26, 6.26, 6.26, 6.26, 6.26, 6.26, 6.26, 6.71, 6.71, 6.71, 6.71, 6.71, 7.15, 7.15, 7.15, 6.71, 6.71, 6.71, 6.26, 6.26, 6.26, 5.81, 5.81, 5.81, 5.81, 5.81, 5.81, 6.26, 6.26, 6.26, 6.26, 6.71, 6.71, 6.71, 6.71, 6.71, 6.71, 6.71, 6.71, 6.71, 7.15, 3.13, 3.13, 3.13, 3.13, 3.13, 3.13, 3.13, 3.13, 3.13, 3.13, 3.58, 3.58, 3.58, 3.58, 3.58, 4.02, 4.02, 4.02, 4.02, 4.02, 4.47, 4.47, 4.47, 4.47, 4.47, 4.47, 4.47, 4.47, 4.47, 4.47, 4.47, 4.47, 4.47, 4.47, 4.47, 4.47, 4.47, 4.47, 4.47, 4.47, 4.47, 4.47, 4.92, 4.92, 4.92, 4.92, 4.92, 5.36, 5.36, 5.36, 5.36, 5.36, 5.36, 5.36, 5.36, 5.81, 5.81, 5.81, 6.26, 6.26, 6.26, 6.26, 6.26, 6.26, 6.71, 6.71, 6.71, 6.71, 6.71, 6.71, 6.71, 6.71, 6.71, 6.26, 6.26, 6.26, 6.26, 5.81, 5.81, 5.81, 5.81, 5.81, 5.81, 5.81, 6.26, 6.26, 6.26, 6.71, 6.71, 6.71, 6.71, 6.71, 6.71, 6.71, 6.71, 6.71, 6.71, 7.15, 3.13, 3.13, 3.13, 3.13, 3.13, 3.13, 3.13, 3.13, 3.13, 3.13, 3.58, 3.58, 3.58, 3.58, 3.58, 4.02, 4.02, 4.02, 4.02, 4.02, 4.02, 4.47, 4.47, 4.47, 4.47, 4.47, 4.47, 4.47, 4.47, 4.47, 4.47, 4.47, 4.47, 4.47, 4.47, 4.47, 4.47, 4.47, 4.47, 4.47, 4.47, 4.92, 4.92, 4.92, 4.92, 4.92, 4.92, 4.92, 5.36, 5.36, 5.36, 5.36, 5.36, 5.36, 5.36, 5.36, 5.81, 5.81, 5.81, 6.26, 6.26, 6.26, 6.26, 6.26, 6.26, 6.26, 6.26, 6.26, 6.26, 6.26, 6.71, 6.71, 6.26, 6.26, 6.26, 6.26, 6.26, 6.26, 5.81, 5.81, 5.81, 5.81, 5.81, 5.81, 5.81, 6.26, 6.26, 6.26, 6.71, 6.71, 6.71, 6.71, 6.71, 6.71, 6.71, 6.71, 7.15, 7.15, 3.13, 3.13, 3.13, 3.13, 3.13, 3.13, 3.13, 3.13, 3.13, 3.13, 3.58, 3.58, 3.58, 3.58, 3.58, 4.02, 4.02, 4.02, 4.02, 4.02, 4.02, 4.47, 4.47, 4.47, 4.47, 4.47, 4.47, 4.47, 4.47, 4.47, 4.47, 4.47, 4.47, 4.92, 4.47, 4.47, 4.47, 4.47, 4.47, 4.47, 4.47, 4.92, 4.92, 4.92, 4.92, 4.92, 4.92, 4.92, 4.92, 4.92, 4.92, 4.92, 5.36, 5.36, 5.36, 5.36, 5.36, 5.81, 5.81, 5.81, 6.26, 6.26, 6.26, 6.26, 6.26, 6.26, 6.26, 6.26, 6.26, 6.26, 6.26, 6.26, 6.26, 6.26, 6.26, 6.26, 6.26, 6.26, 6.26, 6.26, 6.26, 5.81, 5.81, 5.81, 5.81, 6.26, 6.26, 6.26, 6.71, 6.71, 6.71, 6.71, 6.71, 6.71, 6.71, 6.71, 7.15, 7.15, 3.13, 3.13, 3.13, 3.13, 3.13, 3.13, 3.13, 3.13, 3.13, 3.58, 3.58, 3.58, 3.58, 3.58, 4.02, 4.02, 4.02, 4.02, 4.02, 4.02, 4.47, 4.47, 4.47, 4.47, 4.47, 4.47, 4.47, 4.47, 4.47, 4.47, 4.47, 4.47, 4.47, 4.47, 4.47, 4.47, 4.47, 4.47, 4.47, 4.47, 4.47, 4.92, 4.92, 4.92, 4.92, 4.92, 4.92, 4.92, 4.92, 4.92, 4.92, 4.92, 4.92, 5.36, 5.36, 5.36, 5.36, 5.36, 5.81, 5.81, 5.81, 6.26, 6.26, 6.26, 6.26, 6.26, 6.26, 6.26, 5.81, 5.81, 5.81, 5.81, 6.26, 6.26, 6.26, 5.81, 6.26, 6.26, 6.71, 6.26, 6.26, 6.26, 5.81, 5.81, 6.26, 6.26, 6.26, 6.71, 6.71, 6.71, 6.71, 6.71, 6.71, 6.71, 6.71, 6.71, 7.15, 7.15, 3.13, 3.13, 3.13, 3.13, 3.13, 3.13, 3.13, 3.58, 3.58, 3.58, 3.58, 3.58, 3.58, 3.58, 4.02, 4.02, 4.02, 4.02, 4.02, 4.47, 4.47, 4.47, 4.47, 4.47, 4.47, 4.47, 4.47, 4.47, 4.47, 4.47, 4.47, 4.47, 4.47, 4.47, 4.47, 4.47, 4.47, 4.47, 4.47, 4.47, 4.47, 4.47, 4.92, 4.92, 4.92, 4.92, 4.92, 4.92, 4.92, 4.92, 4.92, 4.92, 4.92, 4.92, 5.36, 5.36, 5.36, 5.36, 5.36, 5.81, 5.81, 5.81, 5.81, 5.81, 5.81, 6.26, 6.26, 6.26, 5.81, 5.81, 5.81, 6.26, 6.26, 6.71, 6.26, 6.26, 6.26, 6.26, 6.71, 6.26, 6.26, 6.26, 6.26, 6.26, 6.26, 6.26, 6.71, 6.71, 6.71, 6.71, 6.71, 6.71, 6.71, 6.71, 6.71, 6.71, 6.71, 6.71, 3.13, 3.13, 3.13, 3.13, 3.13, 3.13, 3.58, 3.58, 3.58, 3.58, 3.58, 3.58, 3.58, 4.02, 4.02, 4.02, 4.02, 4.02, 4.47, 4.47, 4.47, 4.47, 4.47, 4.47, 4.47, 4.47, 4.47, 4.92, 4.47, 4.47, 4.47, 4.47, 4.47, 4.47, 4.47, 4.47, 4.47, 4.47, 4.47, 4.47, 4.47, 4.47, 4.47, 4.92, 4.92, 4.92, 4.92, 4.92, 4.92, 4.92, 4.92, 4.92, 4.92, 5.36, 5.36, 5.36, 5.36, 5.36, 5.36, 5.81, 5.81, 5.81, 5.81, 5.81, 5.81, 5.81, 5.81, 5.81, 5.81, 5.81, 6.26, 6.26, 6.26, 6.71, 6.71, 6.71, 6.71, 6.26, 6.26, 5.81, 6.26, 6.26, 6.26, 6.26, 6.71, 6.71, 6.71, 6.71, 6.71, 6.71, 6.71, 6.71, 6.71, 6.71, 6.71, 7.15, 6.71, 6.71, 3.13, 3.13, 3.13, 3.13, 3.13, 3.58, 3.58, 3.58, 3.58, 3.58, 3.58, 3.58, 4.02, 4.02, 4.02, 4.02, 4.02, 4.02, 4.47, 4.47, 4.47, 4.47, 4.47, 4.47, 4.47, 4.47, 4.47, 4.92, 4.47, 4.47, 4.47, 4.47, 4.47, 4.47, 4.47, 4.47, 4.47, 4.47, 4.47, 4.47, 4.47, 4.47, 4.47, 4.47, 4.47, 4.47, 4.92, 4.92, 4.92, 4.92, 4.92, 4.92, 4.92, 4.92, 4.92, 4.92, 5.36, 5.36, 5.36, 5.81, 5.81, 6.26, 5.81, 5.81, 5.81, 5.81, 5.81, 6.26, 6.26, 6.26, 6.26, 6.26, 6.26, 6.26, 6.71, 6.71, 6.71, 6.26, 5.81, 5.81, 5.81, 6.26, 6.26, 6.71, 6.71, 6.71, 6.71, 6.26, 6.71, 6.71, 6.71, 7.15, 7.15, 7.15, 6.71, 6.71, 6.71, 6.71, 3.13, 3.13, 3.13, 3.58, 3.58, 3.58, 3.58, 3.58, 3.58, 3.58, 3.58, 4.02, 4.02, 4.02, 4.02, 4.02, 4.02, 4.47, 4.47, 4.47, 4.47, 4.47, 4.47, 4.47, 4.47, 4.47, 4.47, 4.47, 4.47, 4.47, 4.47, 4.47, 4.47, 4.47, 4.47, 4.47, 4.47, 4.47, 4.47, 4.47, 4.47, 4.47, 4.47, 4.47, 4.47, 4.47, 4.47, 4.92, 4.92, 4.92, 4.92, 4.92, 4.92, 4.92, 4.92, 4.92, 5.36, 5.36, 5.81, 5.81, 5.81, 5.81, 5.81, 5.81, 5.81, 5.81, 5.81, 6.26, 6.26, 6.26, 6.71, 6.71, 6.26, 6.26, 6.26, 6.26, 6.26, 6.26, 6.26, 5.81, 5.81, 6.26, 6.26, 6.71, 6.71, 6.71, 6.71, 6.71, 6.71, 6.71, 7.15, 7.15, 7.15, 7.15, 6.71, 6.71, 6.71, 6.71, 3.13, 3.13, 3.13, 3.58, 3.58, 3.58, 3.58, 3.58, 3.58, 3.58, 4.02, 4.02, 4.02, 4.02, 4.02, 4.02, 4.47, 4.47, 4.47, 4.47, 4.47, 4.47, 4.47, 4.47, 4.47, 4.47, 4.47, 4.47, 4.47, 4.47, 4.47, 4.47, 4.47, 4.47, 4.47, 4.47, 4.47, 4.47, 4.47, 4.47, 4.47, 4.47, 4.47, 4.47, 4.47, 4.47, 4.47, 4.47, 4.92, 4.92, 4.92, 4.92, 4.92, 4.92, 4.92, 4.92, 5.36, 5.36, 5.81, 5.81, 5.81, 5.81, 5.81, 5.81, 5.81, 5.81, 5.81, 6.26, 6.26, 6.71, 6.71, 6.71, 6.26, 6.26, 5.81, 6.26, 6.26, 6.26, 6.26, 6.26, 6.26, 6.26, 6.71, 6.71, 6.71, 6.71, 6.71, 6.71, 6.71, 7.15, 7.15, 7.15, 7.15, 6.71, 6.71, 6.71, 6.71, 6.71, 3.13, 3.13, 3.58, 3.58, 3.58, 3.58, 3.58, 3.58, 3.58, 4.02, 4.02, 4.02, 4.02, 4.02, 4.02, 4.47, 4.47, 4.47, 4.47, 4.47, 4.47, 4.47, 4.47, 4.47, 4.47, 4.47, 4.47, 4.47, 4.47, 4.47, 4.47, 4.47, 4.47, 4.47, 4.47, 4.47, 4.47, 4.47, 4.47, 4.47, 4.02, 4.02, 4.02, 4.02, 4.47, 4.47, 4.47, 4.47, 4.47, 4.92, 4.92, 4.92, 4.92, 4.92, 4.92, 4.92, 4.92, 5.36, 5.36, 5.36, 5.36, 5.81, 5.81, 5.81, 5.81, 5.81, 6.26, 6.26, 6.71, 6.71, 6.71, 6.71, 6.26, 6.26, 5.81, 5.81, 6.26, 6.26, 6.26, 6.71, 6.71, 6.71, 6.71, 6.71, 6.71, 6.71, 6.71, 6.71, 7.15, 7.15, 7.15, 7.15, 6.71, 6.71, 6.71, 6.71, 6.71, 6.71, 3.13, 3.58, 3.58, 3.58, 3.58, 3.58, 3.58, 3.58, 4.02, 4.02, 4.02, 4.02, 4.02, 4.02, 4.02, 4.47, 4.47, 4.47, 4.47, 4.47, 4.47, 4.47, 4.47, 4.47, 4.47, 4.47, 4.47, 4.47, 4.47, 4.47, 4.47, 4.47, 4.47, 4.47, 4.47, 4.47, 4.02, 4.02, 4.02, 4.02, 4.02, 4.02, 4.02, 4.02, 4.47, 4.47, 4.47, 4.47, 4.47, 4.47, 4.92, 4.92, 4.92, 5.36, 5.36, 5.36, 5.36, 5.36, 5.36, 5.36, 5.36, 5.81, 5.81, 6.26, 6.26, 6.26, 6.26, 6.26, 6.71, 6.71, 6.71, 6.71, 6.71, 6.26, 5.81, 6.26, 6.26, 6.26, 6.71, 6.71, 7.15, 7.15, 7.6, 7.6, 7.15, 7.15, 7.15, 7.15, 7.15, 7.15, 6.71, 6.71, 6.71, 6.26, 6.26, 6.26, 6.71, 6.71, 3.58, 3.58, 3.58, 3.58, 3.58, 3.58, 3.58, 4.02, 4.02, 4.02, 4.02, 4.02, 4.02, 4.02, 4.02, 4.47, 4.47, 4.47, 4.47, 4.47, 4.47, 4.47, 4.47, 4.47, 4.47, 4.47, 4.02, 4.02, 4.02, 4.47, 4.47, 4.02, 4.02, 4.02, 4.02, 4.02, 4.02, 4.02, 4.02, 4.02, 4.02, 4.02, 4.02, 4.02, 4.02, 4.02, 4.47, 4.47, 4.47, 4.47, 4.47, 4.92, 4.92, 4.92, 4.92, 5.36, 5.36, 5.36, 5.81, 5.81, 5.81, 5.81, 6.26, 6.26, 6.26, 6.26, 6.26, 6.71, 6.71, 6.71, 7.15, 7.15, 6.71, 6.26, 5.81, 6.26, 6.26, 6.71, 7.15, 7.15, 7.6, 7.6, 7.6, 7.6, 7.6, 7.6, 7.15, 7.15, 7.15, 7.15, 6.71, 6.71, 6.26, 6.26, 6.26, 6.71, 6.71, 6.26, 3.58, 3.58, 3.58, 3.58, 3.58, 3.58, 4.02, 4.02, 4.02, 4.02, 4.02, 4.02, 4.02, 4.02, 4.02, 4.02, 4.02, 4.02, 4.02, 4.02, 4.47, 4.47, 4.47, 4.02, 4.02, 4.02, 4.02, 4.02, 4.02, 4.02, 4.02, 4.02, 4.02, 4.02, 4.02, 4.02, 4.02, 3.58, 4.02, 4.02, 4.02, 4.02, 4.02, 4.02, 4.02, 4.02, 4.02, 4.02, 4.47, 4.47, 4.47, 4.92, 4.92, 4.92, 4.92, 4.92, 5.36, 5.36, 5.81, 5.81, 6.26, 6.26, 6.26, 6.26, 6.71, 6.71, 6.71, 6.71, 6.71, 6.71, 7.15, 7.15, 6.71, 6.26, 6.26, 6.26, 6.71, 7.15, 7.6, 7.6, 8.05, 8.05, 7.6, 7.6, 7.15, 7.6, 7.15, 7.15, 7.15, 6.71, 6.71, 6.26, 6.26, 6.26, 6.26, 6.26, 6.26, 6.26, 3.58, 3.58, 3.58, 3.58, 3.58, 4.02, 4.02, 4.02, 4.02, 4.02, 4.02, 4.02, 4.02, 4.02, 4.02, 4.02, 4.02, 4.02, 4.02, 4.02, 4.02, 4.02, 4.02, 4.02, 4.02, 4.02, 4.02, 4.02, 4.02, 4.02, 4.02, 4.02, 4.02, 3.58, 3.58, 3.58, 3.58, 3.58, 3.58, 3.58, 3.58, 3.58, 3.58, 4.02, 4.02, 4.02, 4.02, 4.02, 4.02, 4.47, 4.47, 4.47, 4.92, 4.92, 4.92, 5.36, 5.36, 5.36, 5.36, 5.36, 5.81, 6.26, 6.26, 6.26, 6.26, 6.26, 6.26, 6.26, 6.26, 6.71, 7.15, 6.71, 5.81, 6.26, 6.71, 6.71, 7.15, 7.6, 7.6, 8.05, 8.05, 7.6, 7.6, 7.15, 7.15, 7.15, 7.15, 7.15, 6.71, 6.71, 6.71, 6.71, 6.71, 6.71, 6.71, 6.26, 6.26, 6.26, 3.58, 3.58, 3.58, 3.58, 3.58, 4.02, 4.02, 4.02, 4.02, 4.02, 4.02, 4.02, 4.02, 4.02, 4.02, 4.02, 4.02, 4.02, 4.02, 4.02, 4.02, 4.02, 4.02, 4.02, 4.02, 4.02, 4.02, 4.02, 4.02, 4.02, 4.02, 4.02, 3.58, 3.58, 3.58, 3.58, 3.58, 3.58, 3.58, 3.58, 3.58, 3.58, 3.58, 3.58, 3.58, 4.02, 4.02, 4.02, 4.02, 4.02, 4.47, 4.47, 4.47, 4.92, 4.92, 5.36, 5.36, 5.36, 5.36, 5.36, 5.36, 5.81, 6.26, 6.26, 6.26, 6.26, 6.26, 6.26, 6.26, 6.26, 6.71, 6.26, 5.81, 6.71, 7.15, 7.15, 7.15, 7.6, 7.6, 7.6, 7.6, 7.15, 7.15, 7.15, 7.15, 7.15, 7.15, 6.71, 6.71, 6.71, 6.71, 6.71, 6.71, 6.71, 6.26, 6.26, 6.26, 6.26, 3.58, 3.58, 3.58, 3.58, 4.02, 4.02, 4.02, 4.02, 4.02, 4.02, 4.02, 4.02, 4.02, 4.02, 4.02, 4.02, 4.02, 4.02, 4.02, 4.02, 4.02, 4.02, 4.02, 4.02, 4.02, 4.02, 4.02, 4.02, 4.02, 4.02, 4.02, 3.58, 3.58, 3.58, 3.58, 3.58, 3.58, 3.58, 3.58, 3.58, 3.58, 3.58, 3.58, 3.58, 3.58, 4.02, 4.02, 4.02, 4.02, 4.02, 4.47, 4.47, 4.47, 4.47, 4.92, 4.92, 4.92, 5.36, 4.92, 5.36, 5.36, 5.36, 5.81, 5.81, 5.81, 6.26, 6.26, 6.26, 6.26, 6.26, 6.71, 5.81, 6.26, 6.71, 7.15, 7.15, 7.15, 7.15, 7.6, 7.15, 7.15, 7.15, 7.15, 7.15, 7.15, 6.71, 6.71, 6.71, 6.71, 6.71, 6.71, 6.71, 6.71, 6.71, 6.71, 6.26, 6.26, 6.26, 3.58, 3.58, 3.58, 3.58, 4.02, 4.02, 4.02, 4.02, 4.02, 4.02, 4.02, 4.02, 4.02, 4.02, 4.02, 4.02, 4.02, 4.02, 4.02, 4.02, 4.02, 4.02, 4.02, 4.02, 4.02, 4.02, 4.02, 4.02, 4.02, 4.02, 4.02, 3.58, 3.58, 3.58, 3.58, 3.58, 3.58, 3.58, 3.58, 3.58, 3.58, 3.58, 3.58, 3.58, 4.02, 4.02, 4.02, 4.02, 4.02, 4.47, 4.47, 4.47, 4.47, 4.47, 4.92, 4.92, 4.92, 4.92, 5.36, 5.36, 5.36, 5.36, 5.36, 5.81, 5.81, 5.81, 6.26, 6.26, 6.26, 6.26, 6.26, 5.81, 6.26, 6.71, 6.71, 6.71, 6.71, 6.71, 6.71, 6.71, 7.15, 7.15, 7.15, 7.15, 7.15, 7.15, 7.15, 7.15, 6.71, 6.71, 6.71, 6.71, 6.71, 6.71, 6.71, 6.71, 6.71, 6.71, 3.58, 3.58, 3.58, 3.58, 3.58, 4.02, 4.02, 4.02, 4.02, 4.02, 4.02, 4.02, 4.02, 4.02, 4.02, 4.02, 4.02, 4.02, 4.02, 4.02, 4.02, 4.02, 4.02, 4.02, 4.02, 4.02, 4.02, 4.02, 4.02, 4.02, 4.02, 3.58, 3.58, 3.58, 3.58, 3.58, 3.58, 3.58, 3.58, 3.58, 3.58, 3.58, 3.58, 3.58, 3.58, 4.02, 4.02, 4.02, 4.02, 4.47, 4.47, 4.47, 4.47, 4.47, 4.92, 4.92, 4.92, 4.92, 5.36, 5.36, 5.36, 5.36, 5.36, 5.81, 5.81, 5.81, 5.81, 6.26, 6.26, 6.26, 6.26, 5.81, 5.81, 6.26, 6.26, 6.26, 6.26, 6.26, 6.26, 6.71, 7.15, 7.15, 7.15, 7.15, 7.15, 7.15, 7.15, 7.15, 7.15, 7.15, 6.71, 6.71, 6.71, 6.71, 6.71, 6.71, 6.71, 6.71, 3.58, 3.58, 3.58, 3.58, 3.58, 3.58, 4.02, 4.02, 4.02, 4.02, 4.02, 4.02, 4.02, 4.02, 4.02, 4.02, 4.02, 4.02, 4.02, 4.02, 4.02, 4.02, 4.02, 4.02, 4.02, 4.02, 4.02, 4.02, 4.02, 4.02, 4.02, 3.58, 3.58, 3.58, 3.58, 3.58, 3.58, 3.58, 3.58, 3.58, 3.58, 3.58, 3.58, 3.58, 3.58, 4.02, 4.02, 4.02, 4.47, 4.47, 4.47, 4.47, 4.47, 4.92, 4.92, 4.92, 4.92, 4.92, 5.36, 5.36, 5.36, 5.36, 5.36, 5.36, 5.81, 5.81, 5.81, 6.26, 6.26, 6.26, 6.26, 5.81, 5.81, 6.26, 6.26, 6.26, 6.26, 6.26, 6.26, 6.71, 6.71, 7.15, 7.15, 7.15, 7.15, 7.15, 7.15, 7.15, 7.15, 7.15, 7.15, 6.71, 6.71, 6.71, 6.71, 6.71, 6.71, 6.71, 3.58, 3.58, 3.58, 3.58, 3.58, 3.58, 3.58, 3.58, 4.02, 4.02, 4.02, 4.02, 4.02, 4.02, 3.58, 4.02, 4.02, 4.02, 4.02, 4.02, 4.02, 4.02, 4.02, 4.02, 4.02, 4.02, 4.02, 4.02, 4.02, 4.02, 3.58, 3.58, 3.58, 3.58, 3.58, 3.58, 3.58, 3.58, 3.58, 3.58, 3.58, 3.58, 3.58, 3.58, 4.02, 4.02, 4.02, 4.02, 4.47, 4.47, 4.47, 4.47, 4.47, 4.92, 4.92, 4.92, 4.92, 4.92, 5.36, 5.36, 5.36, 5.36, 5.36, 5.36, 5.36, 5.81, 5.81, 5.81, 5.81, 5.81, 5.81, 5.36, 5.81, 5.81, 6.71, 6.26, 6.26, 6.26, 6.71, 6.71, 6.71, 6.71, 7.15, 7.15, 7.15, 7.15, 7.15, 6.71, 6.71, 7.15, 6.71, 6.71, 6.71, 6.71, 6.71, 6.71, 6.71, 6.71, 3.58, 3.58, 3.58, 3.58, 3.58, 3.58, 3.58, 3.58, 3.58, 3.58, 3.58, 3.58, 3.58, 3.58, 3.58, 3.58, 3.58, 3.58, 4.02, 4.02, 4.02, 4.02, 4.02, 4.02, 4.02, 4.02, 4.02, 3.58, 3.58, 3.58, 3.58, 3.58, 3.58, 3.58, 3.58, 3.58, 3.58, 3.58, 3.58, 3.58, 3.58, 3.58, 3.58, 4.02, 4.02, 4.02, 4.02, 4.02, 4.47, 4.47, 4.47, 4.47, 4.47, 4.92, 4.92, 4.92, 4.92, 4.92, 4.92, 5.36, 5.36, 5.36, 5.36, 5.36, 5.36, 5.81, 5.81, 5.81, 5.81, 5.81, 5.81, 5.81, 5.81, 6.71, 6.71, 6.71, 6.26, 6.26, 6.71, 6.71, 6.26, 6.71, 6.71, 7.15, 7.15, 6.71, 6.71, 6.71, 6.26, 6.26, 6.71, 6.71, 6.71, 6.71, 6.71, 6.71, 6.71, 6.71, 3.58, 3.58, 3.58, 3.58, 3.58, 3.58, 3.58, 3.58, 3.58, 3.58, 3.58, 3.58, 3.58, 3.58, 3.58, 3.58, 3.58, 3.58, 4.02, 4.02, 4.02, 4.02, 4.02, 4.02, 4.02, 3.58, 3.58, 3.58, 3.58, 3.58, 3.58, 3.58, 3.58, 3.58, 3.58, 3.58, 3.58, 3.58, 3.58, 3.58, 3.58, 4.02, 4.02, 4.02, 4.02, 4.02, 4.02, 4.02, 4.47, 4.47, 4.47, 4.47, 4.47, 4.92, 4.92, 4.92, 4.92, 4.92, 4.92, 5.36, 5.36, 5.36, 5.36, 5.36, 5.36, 5.81, 5.81, 5.81, 5.81, 5.81, 5.81, 5.81, 6.26, 6.26, 6.26, 6.71, 6.26, 6.26, 6.26, 6.26, 6.26, 6.71, 6.71, 7.15, 6.71, 6.71, 6.71, 6.26, 6.26, 6.26, 6.71, 6.71, 6.71, 6.71, 6.71, 6.71, 6.71, 6.71, 3.58, 3.58, 3.58, 3.58, 3.58, 3.58, 3.58, 3.58, 3.58, 3.58, 3.58, 3.58, 3.58, 3.58, 3.58, 3.58, 3.58, 3.58, 3.58, 4.02, 4.02, 4.02, 4.02, 4.02, 3.58, 3.58, 3.58, 3.58, 3.58, 3.58, 3.58, 3.58, 3.58, 3.58, 3.58, 3.58, 3.58, 3.58, 3.58, 3.58, 4.02, 4.02, 4.02, 4.02, 4.02, 4.02, 4.02, 4.02, 4.47, 4.47, 4.47, 4.47, 4.47, 4.92, 4.92, 4.92, 4.92, 4.92, 4.92, 4.92, 5.36, 5.36, 5.36, 5.36, 5.36, 5.36, 5.81, 5.81, 5.81, 5.81, 6.26, 5.81, 5.81, 5.81, 6.26, 6.26, 6.26, 6.26, 6.26, 6.26, 6.71, 6.71, 6.71, 6.71, 6.71, 6.71, 6.71, 6.26, 6.26, 6.26, 6.71, 6.71, 6.71, 6.71, 6.71, 6.71, 6.71, 6.71, 3.58, 3.58, 3.58, 3.58, 3.58, 3.58, 3.58, 3.58, 3.58, 3.58, 3.58, 3.58, 3.58, 3.58, 3.58, 3.58, 3.58, 3.58, 3.58, 3.58, 3.58, 3.58, 3.58, 3.58, 3.58, 3.58, 3.58, 3.58, 3.58, 3.58, 3.58, 3.58, 3.58, 3.58, 3.58, 3.58, 3.58, 3.58, 3.58, 4.02, 4.02, 4.02, 4.02, 4.02, 4.02, 4.02, 4.02, 4.47, 4.47, 4.47, 4.47, 4.47, 4.47, 4.47, 4.92, 4.92, 4.92, 4.92, 4.92, 4.92, 4.92, 5.36, 5.36, 5.36, 5.36, 5.36, 5.36, 5.81, 5.81, 5.81, 5.81, 5.81, 5.81, 5.81, 6.26, 6.26, 6.26, 5.81, 6.26, 6.26, 6.71, 6.71, 6.71, 6.26, 6.26, 6.26, 6.26, 6.26, 6.26, 6.71, 6.71, 6.71, 6.71, 6.71, 6.71, 6.71, 6.71, 6.71, 3.58, 3.58, 3.58, 3.58, 3.58, 3.58, 3.58, 3.58, 3.58, 3.58, 3.58, 3.58, 3.58, 3.58, 3.58, 3.58, 3.58, 3.58, 3.58, 3.58, 3.58, 3.58, 3.58, 3.58, 3.58, 3.58, 3.58, 3.58, 3.58, 3.58, 3.58, 3.58, 3.58, 3.58, 3.58, 3.58, 3.58, 3.58, 3.58, 4.02, 4.02, 4.02, 4.02, 4.02, 4.02, 4.02, 4.02, 4.47, 4.47, 4.47, 4.47, 4.47, 4.47, 4.47, 4.92, 4.92, 4.92, 4.92, 4.92, 4.92, 4.92, 5.36, 5.36, 5.36, 5.36, 5.36, 5.36, 5.81, 5.81, 5.81, 5.81, 5.81, 5.81, 5.81, 6.26, 5.81, 5.36, 5.81, 6.26, 6.26, 6.26, 6.71, 6.26, 6.26, 6.26, 5.81, 6.26, 6.26, 6.71, 6.71, 6.71, 6.71, 6.71, 6.71, 6.71, 6.71, 6.71, 6.71, 3.58, 3.58, 3.58, 3.58, 3.58, 3.58, 3.58, 3.58, 3.58, 3.58, 3.58, 3.58, 3.58, 3.58, 3.58, 3.58, 3.58, 3.58, 3.58, 3.58, 3.58, 3.58, 3.58, 3.58, 3.58, 3.58, 3.58, 3.58, 3.58, 3.58, 3.58, 3.58, 3.58, 3.58, 3.58, 3.58, 3.58, 3.58, 3.58, 3.58, 4.02, 4.02, 4.02, 4.02, 4.02, 4.02, 4.47, 4.47, 4.47, 4.47, 4.47, 4.47, 4.47, 4.92, 4.92, 4.92, 4.92, 4.92, 4.92, 4.92, 4.92, 5.36, 5.36, 5.36, 5.36, 5.36, 5.81, 5.81, 5.81, 5.81, 6.26, 6.26, 5.81, 5.81, 5.81, 5.36, 5.36, 5.81, 6.26, 6.71, 6.26, 6.26, 6.26, 6.26, 6.26, 6.26, 6.26, 6.26, 6.71, 6.71, 6.71, 6.71, 6.71, 6.71, 6.71, 6.71, 6.71, 6.71, 3.58, 3.58, 3.58, 3.58, 3.58, 3.58, 3.58, 3.58, 3.58, 3.58, 3.58, 3.58, 3.58, 3.58, 3.58, 3.58, 3.58, 3.58, 3.58, 3.58, 3.58, 3.58, 3.58, 3.58, 3.58, 3.58, 3.58, 3.58, 3.58, 3.58, 3.58, 3.58, 3.58, 3.58, 3.58, 3.58, 3.58, 3.58, 4.02, 4.02, 4.02, 4.02, 4.02, 4.02, 4.02, 4.02, 4.02, 4.47, 4.47, 4.47, 4.47, 4.47, 4.47, 4.92, 4.92, 4.92, 4.92, 4.92, 4.92, 4.92, 4.92, 5.36, 5.36, 5.36, 5.36, 5.36, 5.81, 5.81, 6.26, 6.26, 5.81, 5.81, 6.26, 6.26, 5.81, 5.36, 5.81, 6.26, 6.26, 6.71, 6.26, 6.26, 6.26, 6.26, 6.26, 6.26, 6.26, 6.71, 6.71, 6.71, 6.71, 6.26, 6.71, 6.71, 6.71, 6.71, 6.71, 6.71, 3.58, 3.58, 3.58, 3.58, 3.58, 3.58, 3.58, 3.58, 3.58, 3.58, 3.58, 3.58, 3.58, 3.58, 3.58, 3.58, 3.58, 3.58, 3.58, 3.58, 3.58, 3.58, 3.58, 3.58, 3.58, 3.58, 3.58, 3.58, 3.58, 3.58, 3.58, 3.58, 3.58, 3.58, 3.58, 3.58, 3.58, 4.02, 4.02, 4.02, 4.02, 4.02, 4.02, 4.02, 4.02, 4.02, 4.02, 4.47, 4.47, 4.47, 4.47, 4.47, 4.47, 4.92, 4.92, 4.92, 4.92, 4.92, 4.92, 4.92, 4.92, 4.92, 4.92, 5.36, 5.36, 5.36, 5.81, 5.81, 6.26, 6.26, 6.26, 5.81, 5.81, 6.26, 5.81, 5.81, 6.26, 6.26, 6.26, 6.26, 6.26, 6.26, 6.26, 6.26, 6.26, 6.26, 6.71, 6.71, 6.71, 6.26, 6.26, 6.26, 6.26, 6.71, 6.71, 6.71, 6.71, 6.71, 3.58, 3.58, 3.58, 3.58, 3.58, 4.02, 4.02, 4.02, 4.02, 4.02, 4.02, 3.58, 3.58, 3.58, 3.58, 3.58, 3.58, 3.58, 3.58, 3.58, 3.58, 3.58, 3.58, 3.58, 3.58, 3.58, 3.58, 3.58, 3.58, 3.58, 3.58, 3.58, 3.58, 3.58, 3.58, 3.58, 3.58, 3.58, 4.02, 4.02, 4.02, 4.02, 4.02, 4.02, 4.02, 4.47, 4.47, 4.47, 4.47, 4.47, 4.47, 4.47, 4.47, 4.92, 4.92, 4.92, 4.92, 4.92, 4.92, 4.92, 4.92, 5.36, 5.36, 5.36, 5.36, 5.36, 5.81, 5.81, 5.81, 6.26, 6.26, 6.26, 5.81, 5.81, 5.81, 5.81, 6.26, 6.71, 6.26, 6.26, 6.26, 6.26, 6.26, 6.26, 6.26, 6.71, 6.71, 6.71, 6.71, 6.26, 6.26, 6.26, 6.26, 6.71, 6.71, 6.71, 6.71, 6.71, 3.58, 3.58, 3.58, 4.02, 4.02, 4.02, 4.02, 4.02, 4.02, 4.02, 4.02, 3.58, 3.58, 3.58, 3.58, 3.58, 3.58, 3.58, 3.58, 3.58, 3.58, 3.58, 3.58, 3.58, 3.58, 3.58, 3.58, 3.58, 3.58, 3.58, 3.58, 3.58, 3.58, 3.58, 3.58, 3.58, 3.58, 3.58, 4.02, 4.02, 4.02, 4.02, 4.02, 4.02, 4.02, 4.47, 4.47, 4.47, 4.47, 4.47, 4.47, 4.47, 4.47, 4.92, 4.92, 4.92, 4.92, 4.92, 4.92, 4.92, 4.92, 5.36, 5.36, 5.36, 5.36, 5.81, 5.81, 5.81, 5.81, 5.81, 6.26, 6.26, 6.26, 5.81, 5.81, 6.26, 6.26, 6.26, 6.26, 6.26, 6.26, 6.26, 6.26, 6.26, 6.26, 6.71, 6.71, 6.71, 6.26, 6.26, 6.26, 6.26, 6.71, 6.71, 6.71, 6.71, 6.71, 6.71, 3.58, 3.58, 4.02, 4.02, 4.02, 4.02, 4.02, 4.02, 4.02, 4.02, 4.02, 3.58, 3.58, 3.58, 3.58, 3.58, 3.58, 3.58, 3.58, 3.58, 3.58, 3.58, 3.58, 3.58, 3.58, 3.58, 3.58, 3.58, 3.58, 3.58, 3.58, 3.58, 3.58, 3.58, 3.58, 3.58, 3.58, 3.58, 4.02, 4.02, 4.02, 4.02, 4.02, 4.02, 4.47, 4.47, 4.47, 4.47, 4.47, 4.47, 4.47, 4.92, 4.92, 4.92, 4.92, 4.92, 4.92, 4.92, 4.92, 4.92, 4.92, 5.36, 5.36, 5.36, 5.81, 5.81, 5.81, 5.81, 6.26, 6.26, 6.26, 6.26, 6.26, 6.26, 5.81, 6.26, 6.26, 6.26, 6.26, 6.26, 6.26, 6.26, 6.26, 6.26, 6.71, 6.71, 6.26, 6.26, 6.26, 6.26, 6.26, 6.26, 6.26, 6.26, 6.26, 6.26, 6.26, 6.26, 3.58, 3.58, 4.02, 4.02, 4.02, 4.02, 4.02, 4.02, 4.02, 4.02, 4.02, 4.02, 3.58, 3.58, 3.58, 3.58, 3.58, 3.58, 3.58, 3.58, 3.58, 3.58, 3.58, 3.58, 3.58, 3.58, 3.58, 3.58, 3.58, 3.58, 3.58, 3.58, 3.58, 3.58, 3.58, 3.58, 3.58, 3.58, 4.02, 4.02, 4.02, 4.02, 4.02, 4.47, 4.47, 4.47, 4.47, 4.47, 4.47, 4.47, 4.92, 4.92, 4.92, 4.92, 4.92, 4.92, 4.92, 4.92, 4.92, 4.92, 5.36, 5.36, 5.36, 5.36, 5.81, 5.81, 5.81, 5.81, 5.81, 6.26, 6.26, 6.26, 6.26, 6.26, 5.81, 5.81, 6.26, 6.26, 6.26, 6.26, 6.26, 6.26, 6.26, 6.71, 6.26, 6.26, 6.26, 6.26, 6.26, 6.26, 6.26, 6.26, 6.26, 6.26, 6.26, 6.26, 6.26, 6.26, 3.58, 3.58, 4.02, 4.02, 4.02, 4.02, 4.02, 4.02, 4.02, 4.02, 4.02, 4.02, 3.58, 3.58, 3.58, 3.58, 3.58, 3.58, 3.58, 3.58, 3.58, 3.58, 3.58, 3.58, 3.58, 3.58, 3.58, 3.58, 3.58, 3.58, 3.58, 3.58, 3.58, 3.58, 3.58, 3.58, 3.58, 3.58, 4.02, 4.02, 4.02, 4.02, 4.02, 4.47, 4.47, 4.47, 4.47, 4.47, 4.47, 4.92, 4.92, 4.92, 4.92, 4.92, 4.92, 4.92, 4.92, 4.92, 5.36, 5.36, 5.36, 5.36, 5.36, 5.81, 5.81, 5.81, 5.81, 5.81, 6.26, 6.26, 6.26, 6.26, 6.26, 6.26, 6.26, 6.26, 5.81, 6.26, 6.26, 6.26, 6.26, 6.71, 6.71, 6.71, 6.26, 6.26, 5.81, 6.26, 6.26, 6.26, 6.26, 6.26, 6.26, 6.26, 6.26, 5.81, 6.26, 6.26, 4.02, 4.02, 4.02, 4.02, 4.02, 4.02, 4.02, 4.02, 4.02, 4.02, 4.02, 4.02, 4.02, 4.02, 3.58, 3.58, 3.58, 3.58, 3.58, 3.58, 3.58, 3.58, 3.58, 3.58, 3.58, 3.58, 3.58, 3.58, 3.58, 3.58, 3.58, 3.58, 3.58, 3.58, 3.58, 3.58, 3.58, 3.58, 4.02, 4.02, 4.02, 4.02, 4.02, 4.47, 4.47, 4.47, 4.47, 4.47, 4.92, 4.92, 4.92, 4.92, 4.92, 4.92, 4.92, 4.92, 5.36, 5.36, 5.36, 5.36, 5.36, 5.36, 5.81, 5.81, 5.81, 5.81, 5.81, 6.26, 6.26, 6.26, 6.26, 6.26, 6.26, 6.26, 5.81, 5.81, 5.81, 5.81, 5.81, 6.26, 6.71, 6.71, 6.71, 6.26, 6.26, 5.81, 5.81, 6.26, 6.26, 6.26, 6.26, 6.26, 6.26, 6.26, 6.26, 5.81, 5.81, 5.81, 4.02, 4.02, 4.02, 4.02, 4.02, 4.02, 4.02, 4.02, 4.02, 4.02, 4.02, 4.02, 4.02, 4.02, 3.58, 3.58, 3.58, 3.58, 3.58, 3.58, 3.58, 3.58, 3.58, 3.58, 3.58, 3.58, 3.58, 3.58, 3.58, 3.58, 3.58, 3.58, 3.58, 3.58, 3.58, 3.58, 3.58, 4.02, 4.02, 4.02, 4.02, 4.02, 4.02, 4.47, 4.47, 4.47, 4.47, 4.47, 4.92, 4.92, 4.92, 4.92, 4.92, 4.92, 5.36, 5.36, 5.36, 5.36, 5.36, 5.36, 5.81, 5.81, 5.81, 5.81, 5.81, 5.81, 5.81, 6.26, 6.26, 6.26, 6.26, 6.26, 5.81, 5.81, 5.81, 5.81, 5.81, 5.81, 5.81, 6.26, 6.26, 6.71, 6.26, 6.26, 5.81, 5.81, 5.81, 6.26, 5.81, 5.81, 5.81, 5.81, 6.26, 6.26, 6.26, 5.81, 5.81, 5.81, 4.02, 4.02, 4.02, 4.02, 4.02, 4.02, 4.02, 4.02, 4.02, 4.02, 4.02, 4.02, 4.02, 4.02, 3.58, 3.58, 3.58, 3.58, 3.58, 3.58, 3.58, 3.58, 3.58, 3.58, 3.58, 3.58, 3.58, 3.58, 3.58, 3.58, 3.58, 3.58, 3.58, 3.58, 3.58, 3.58, 4.02, 4.02, 4.02, 4.02, 4.02, 4.02, 4.02, 4.47, 4.47, 4.47, 4.47, 4.92, 4.92, 4.92, 4.92, 4.92, 4.92, 4.92, 5.36, 5.36, 5.36, 5.36, 5.36, 5.36, 5.81, 5.81, 5.81, 5.81, 5.81, 5.81, 5.81, 5.81, 6.26, 6.26, 6.26, 6.26, 5.81, 5.81, 5.36, 5.81, 5.81, 6.26, 6.26, 6.26, 6.26, 6.26, 5.81, 5.81, 5.81, 5.81, 5.81, 5.81, 5.81, 5.81, 5.81, 5.81, 5.81, 6.26, 6.26, 5.81, 5.81, 5.81, 4.02, 4.02, 4.02, 4.02, 4.02, 4.02, 4.02, 4.02, 4.02, 4.02, 4.02, 4.02, 4.02, 4.02, 3.58, 3.58, 3.58, 3.58, 3.58, 3.58, 3.58, 3.58, 3.58, 3.58, 3.58, 3.58, 3.58, 3.58, 3.58, 3.58, 3.58, 3.58, 3.58, 3.58, 3.58, 4.02, 4.02, 4.02, 4.02, 4.02, 4.02, 4.02, 4.02, 4.02, 4.47, 4.47, 4.47, 4.47, 4.92, 4.92, 4.92, 4.92, 4.92, 4.92, 5.36, 5.36, 5.36, 5.36, 5.36, 5.81, 5.81, 5.81, 5.81, 5.81, 5.81, 5.81, 6.26, 6.26, 5.81, 5.81, 6.26, 5.81, 5.81, 5.36, 5.36, 5.36, 5.81, 6.26, 6.26, 6.26, 6.26, 5.81, 5.81, 5.81, 5.81, 5.81, 5.81, 5.81, 5.81, 5.81, 5.81, 5.81, 5.81, 5.81, 5.81, 6.26, 6.26, 5.81, 4.02, 4.02, 4.02, 4.02, 4.02, 4.02, 4.02, 4.02, 4.02, 4.02, 4.02, 4.02, 4.02, 4.02, 4.02, 3.58, 3.58, 3.58, 3.58, 3.58, 3.58, 3.58, 3.58, 3.58, 3.58, 3.58, 3.58, 3.58, 3.58, 3.58, 4.02, 4.02, 4.02, 4.02, 4.02, 4.02, 4.02, 4.02, 4.02, 4.02, 4.02, 4.02, 4.02, 4.02, 4.47, 4.47, 4.47, 4.47, 4.47, 4.92, 4.92, 4.92, 4.92, 4.92, 4.92, 5.36, 5.36, 5.36, 5.36, 5.81, 5.81, 5.81, 5.81, 5.81, 5.81, 5.81, 5.81, 6.26, 5.81, 5.81, 5.81, 5.81, 5.81, 5.36, 5.36, 5.36, 5.81, 6.26, 6.26, 6.26, 6.26, 5.81, 5.81, 5.81, 5.81, 5.81, 5.81, 5.81, 5.81, 5.81, 5.81, 5.81, 5.81, 5.81, 5.81, 5.81, 6.26, 6.26, 4.02, 4.02, 4.02, 4.02, 4.02, 4.02, 4.02, 4.02, 4.02, 4.02, 4.02, 4.02, 4.02, 4.02, 4.02, 4.02, 3.58, 3.58, 3.58, 3.58, 3.58, 3.58, 3.58, 3.58, 3.58, 3.58, 3.58, 4.02, 4.02, 4.02, 4.02, 4.02, 4.02, 4.02, 4.02, 4.02, 4.02, 4.02, 4.02, 4.02, 4.02, 4.02, 4.02, 4.02, 4.47, 4.47, 4.47, 4.47, 4.47, 4.47, 4.92, 4.92, 4.92, 4.92, 4.92, 5.36, 5.36, 5.36, 5.36, 5.81, 5.81, 5.81, 5.81, 5.81, 5.81, 5.81, 5.81, 5.81, 5.81, 5.81, 5.81, 5.81, 5.81, 5.36, 5.36, 4.92, 5.36, 5.81, 6.26, 6.26, 5.81, 5.81, 5.81, 5.81, 5.81, 5.36, 5.36, 5.81, 5.81, 5.81, 5.81, 5.81, 5.81, 5.81, 5.81, 5.81, 5.81, 5.81, 4.02, 4.02, 4.02, 4.02, 4.02, 4.02, 4.02, 4.02, 4.02, 4.02, 4.02, 4.02, 4.02, 4.02, 4.02, 4.02, 4.02, 3.58, 3.58, 3.58, 3.58, 3.58, 3.58, 3.58, 3.58, 3.58, 3.58, 4.02, 4.02, 4.02, 4.02, 4.02, 4.02, 4.02, 4.02, 4.02, 4.02, 4.02, 4.02, 4.02, 4.02, 4.02, 4.02, 4.02, 4.47, 4.47, 4.47, 4.47, 4.47, 4.47, 4.92, 4.92, 4.92, 4.92, 4.92, 5.36, 5.36, 5.36, 5.36, 5.81, 5.81, 5.81, 5.81, 5.81, 5.81, 5.81, 5.81, 5.81, 5.81, 5.81, 5.81, 5.81, 5.81, 5.36, 5.36, 5.36, 5.36, 5.81, 5.81, 5.81, 5.81, 5.81, 5.81, 5.81, 5.36, 5.36, 5.36, 5.81, 5.81, 5.81, 5.81, 5.81, 5.81, 5.81, 5.81, 5.81, 5.81, 5.81, 4.02, 4.02, 4.02, 4.02, 4.02, 4.02, 4.02, 4.02, 4.02, 4.02, 4.02, 4.02, 4.02, 4.02, 4.02, 4.02, 4.02, 4.02, 3.58, 3.58, 3.58, 3.58, 3.58, 3.58, 3.58, 3.58, 4.02, 4.02, 4.02, 4.02, 4.02, 4.02, 4.02, 4.02, 4.02, 4.02, 4.02, 4.02, 4.02, 4.02, 4.02, 4.02, 4.02, 4.02, 4.47, 4.47, 4.47, 4.47, 4.47, 4.47, 4.47, 4.92, 4.92, 4.92, 4.92, 5.36, 5.36, 5.36, 5.36, 5.81, 5.81, 5.81, 5.81, 5.81, 5.81, 5.81, 5.81, 5.81, 5.81, 5.81, 5.81, 5.81, 5.81, 5.36, 5.36, 5.36, 5.36, 5.36, 5.81, 5.81, 5.81, 5.81, 5.81, 5.81, 5.36, 5.36, 5.81, 5.36, 5.36, 5.36, 5.81, 5.81, 5.81, 5.81, 5.81, 5.81, 5.81, 5.81, 4.02, 4.02, 4.02, 4.02, 4.02, 4.02, 4.02, 4.02, 4.02, 4.02, 4.02, 4.02, 4.02, 4.02, 4.02, 4.02, 4.02, 4.02, 4.02, 3.58, 3.58, 3.58, 3.58, 3.58, 3.58, 3.58, 4.02, 4.02, 4.02, 4.02, 4.02, 4.02, 4.02, 4.02, 4.02, 4.02, 4.02, 4.02, 4.02, 4.02, 4.02, 4.02, 4.02, 4.02, 4.47, 4.47, 4.47, 4.47, 4.47, 4.47, 4.47, 4.92, 4.92, 4.92, 4.92, 5.36, 5.36, 5.36, 5.36, 5.81, 5.81, 5.81, 5.81, 5.81, 5.81, 5.81, 5.81, 5.81, 5.81, 5.81, 5.81, 5.81, 5.36, 5.36, 5.36, 5.36, 5.36, 5.36, 5.81, 5.81, 5.81, 5.81, 5.81, 5.81, 5.81, 5.81, 5.36, 5.36, 5.36, 5.36, 5.81, 5.81, 5.81, 5.81, 5.81, 5.81, 5.81, 5.81, 4.02, 4.02, 4.02, 4.02, 4.02, 4.02, 4.02, 4.02, 4.02, 4.02, 4.02, 4.02, 4.02, 4.02, 4.02, 4.02, 4.02, 4.02, 4.02, 3.58, 3.58, 3.58, 3.58, 3.58, 3.58, 4.02, 4.02, 4.02, 4.02, 4.02, 4.02, 4.02, 4.02, 4.02, 4.02, 4.02, 4.02, 4.02, 4.02, 4.02, 4.02, 4.02, 4.02, 4.02, 4.47, 4.47, 4.47, 4.47, 4.47, 4.47, 4.47, 4.92, 4.92, 4.92, 4.92, 5.36, 5.36, 5.36, 5.36, 5.36, 5.81, 5.81, 5.81, 5.81, 5.81, 5.81, 5.81, 5.81, 5.81, 5.81, 5.81, 5.81, 5.36, 5.36, 5.36, 5.36, 4.92, 5.36, 5.36, 5.81, 5.81, 5.81, 5.81, 5.81, 5.81, 5.81, 5.36, 5.36, 5.36, 5.81, 5.81, 5.81, 5.81, 5.81, 5.81, 5.81, 5.81, 5.81, 4.02, 4.02, 4.02, 4.02, 4.02, 4.02, 4.02, 4.02, 4.02, 4.02, 4.02, 4.02, 4.02, 4.02, 4.02, 4.02, 4.02, 4.02, 4.02, 4.02, 4.02, 4.02, 4.02, 4.02, 4.02, 4.02, 4.02, 4.02, 4.02, 4.02, 4.02, 4.02, 4.02, 4.02, 4.02, 4.02, 4.02, 4.02, 4.02, 4.02, 4.02, 4.02, 4.02, 4.02, 4.47, 4.47, 4.47, 4.47, 4.47, 4.47, 4.47, 4.92, 4.92, 4.92, 4.92, 5.36, 5.36, 5.36, 5.36, 5.36, 5.81, 5.81, 5.81, 5.81, 5.81, 5.81, 5.81, 5.81, 5.81, 5.81, 5.81, 5.81, 5.36, 5.36, 5.36, 5.36, 5.36, 4.92, 5.36, 5.36, 5.81, 5.81, 5.81, 5.81, 5.81, 5.81, 5.36, 5.36, 5.81, 5.81, 5.81, 5.81, 5.81, 5.81, 5.81, 5.81, 5.81, 5.81, 4.02, 4.02, 4.02, 4.02, 4.02, 4.02, 4.02, 4.02, 4.02, 4.02, 4.02, 4.02, 4.02, 4.02, 4.02, 4.02, 4.02, 4.02, 4.02, 4.02, 4.02, 4.02, 4.02, 4.02, 4.02, 4.02, 4.02, 4.02, 4.02, 4.02, 4.02, 4.02, 4.02, 4.02, 4.02, 4.02, 4.02, 4.02, 4.02, 4.02, 4.02, 4.02, 4.02, 4.02, 4.47, 4.47, 4.47, 4.47, 4.47, 4.47, 4.92, 4.92, 4.92, 4.92, 4.92, 5.36, 5.36, 5.36, 5.36, 5.36, 5.36, 5.81, 5.81, 5.81, 5.81, 5.36, 5.36, 5.81, 5.81, 5.81, 5.81, 5.36, 5.36, 5.36, 5.36, 5.36, 5.36, 5.36, 5.36, 5.36, 5.81, 5.81, 5.81, 6.26, 5.81, 5.81, 5.36, 5.36, 5.81, 5.81, 5.81, 5.81, 5.81, 5.81, 5.81, 5.81, 5.81, 5.81, 4.02, 4.47, 4.47, 4.47, 4.47, 4.47, 4.47, 4.02, 4.02, 4.02, 4.02, 4.02, 4.02, 4.02, 4.02, 4.02, 4.02, 4.02, 4.02, 4.02, 4.02, 4.02, 4.02, 4.02, 4.02, 4.02, 4.02, 4.02, 4.02, 4.02, 4.02, 4.02, 4.02, 4.02, 4.02, 4.02, 4.02, 4.02, 4.02, 4.02, 4.02, 4.02, 4.02, 4.47, 4.47, 4.47, 4.47, 4.47, 4.47, 4.47, 4.92, 4.92, 4.92, 4.92, 5.36, 5.36, 5.36, 5.36, 5.36, 5.36, 5.36, 5.36, 5.36, 5.36, 5.36, 5.81, 5.36, 5.36, 5.36, 5.81, 5.81, 5.81, 5.81, 5.36, 5.36, 5.36, 5.36, 5.36, 5.36, 5.36, 5.36, 5.81, 5.81, 5.81, 6.26, 5.36, 5.36, 5.36, 5.36, 5.36, 5.81, 5.81, 5.81, 5.81, 5.81, 5.81, 5.81, 5.81, 4.47, 4.47, 4.47, 4.47, 4.47, 4.47, 4.47, 4.47, 4.47, 4.02, 4.02, 4.02, 4.02, 4.02, 4.02, 4.02, 4.02, 4.02, 4.02, 4.02, 4.02, 4.02, 4.02, 4.02, 4.02, 4.02, 4.02, 4.02, 4.02, 4.02, 4.02, 4.02, 4.02, 4.02, 4.02, 4.02, 4.02, 4.02, 4.02, 4.02, 4.02, 4.02, 4.02, 4.47, 4.47, 4.47, 4.47, 4.47, 4.47, 4.92, 4.92, 4.92, 4.92, 4.92, 5.36, 5.36, 5.36, 5.36, 5.36, 5.36, 5.36, 5.36, 5.36, 5.36, 5.36, 5.81, 5.81, 5.36, 5.36, 5.36, 5.81, 5.81, 5.81, 5.81, 5.36, 5.36, 5.36, 5.36, 5.36, 5.36, 5.36, 5.36, 5.36, 5.81, 6.26, 5.81, 5.81, 5.36, 5.36, 5.36, 5.36, 5.36, 5.81, 5.81, 5.81, 5.81, 5.81, 5.81, 4.47, 4.47, 4.47, 4.47, 4.47, 4.47, 4.47, 4.47, 4.47, 4.47, 4.02, 4.02, 4.02, 4.02, 4.02, 4.02, 4.02, 4.02, 4.02, 4.02, 4.02, 4.02, 4.02, 4.02, 4.02, 4.02, 4.02, 4.02, 4.02, 4.02, 4.02, 4.02, 4.02, 4.02, 4.02, 4.02, 4.02, 4.02, 4.02, 4.02, 4.02, 4.02, 4.47, 4.47, 4.47, 4.47, 4.47, 4.47, 4.92, 4.92, 4.92, 4.92, 4.92, 4.92, 5.36, 5.36, 5.36, 5.36, 5.36, 5.36, 5.36, 5.36, 5.36, 5.36, 5.36, 5.36, 5.81, 5.81, 5.36, 5.36, 5.81, 5.36, 5.36, 5.36, 5.36, 5.36, 5.36, 5.36, 5.36, 5.36, 5.36, 5.36, 5.36, 6.26, 6.26, 6.26, 5.81, 5.81, 5.36, 5.36, 5.36, 5.36, 5.36, 5.81, 5.81, 5.81, 5.81, 5.81, 4.47, 4.47, 4.47, 4.47, 4.47, 4.47, 4.47, 4.47, 4.47, 4.47, 4.02, 4.02, 4.02, 4.02, 4.02, 4.02, 4.02, 4.02, 4.02, 4.02, 4.02, 4.02, 4.02, 4.02, 4.02, 4.02, 4.02, 4.02, 4.02, 4.02, 4.02, 4.02, 4.02, 4.02, 4.02, 4.02, 4.02, 4.02, 4.02, 4.02, 4.02, 4.02, 4.47, 4.47, 4.47, 4.47, 4.47, 4.47, 4.92, 4.92, 4.92, 4.92, 4.92, 4.92, 5.36, 5.36, 5.36, 5.36, 5.36, 5.36, 5.36, 5.36, 5.36, 5.36, 5.36, 5.81, 5.81, 5.81, 5.81, 5.81, 5.81, 5.81, 5.36, 5.36, 5.36, 5.36, 5.36, 5.36, 5.36, 5.36, 5.36, 5.36, 5.36, 6.26, 6.71, 6.26, 5.81, 5.81, 5.36, 5.36, 5.36, 5.36, 5.36, 5.81, 5.81, 5.81, 5.81, 5.81, 4.47, 4.47, 4.47, 4.47, 4.47, 4.47, 4.47, 4.47, 4.47, 4.47, 4.02, 4.02, 4.02, 4.02, 4.02, 4.02, 4.02, 4.02, 4.02, 4.02, 4.02, 4.02, 4.02, 4.02, 4.02, 4.02, 4.02, 4.02, 4.02, 4.02, 4.02, 4.02, 4.02, 4.02, 4.02, 4.02, 4.02, 4.02, 4.02, 4.02, 4.02, 4.47, 4.47, 4.47, 4.47, 4.47, 4.47, 4.92, 4.92, 4.92, 4.92, 4.92, 4.92, 4.92, 4.92, 5.36, 5.36, 5.36, 5.36, 5.36, 5.36, 5.36, 5.36, 5.81, 5.81, 5.81, 5.81, 5.81, 5.81, 5.81, 5.81, 5.81, 5.81, 5.36, 5.36, 5.36, 5.36, 5.36, 5.36, 5.36, 5.36, 5.36, 5.36, 5.81, 6.26, 6.26, 5.81, 5.81, 5.81, 5.81, 5.36, 5.36, 5.36, 5.36, 5.36, 5.36, 5.36, 5.36, 4.47, 4.47, 4.47, 4.47, 4.47, 4.47, 4.47, 4.47, 4.47, 4.02, 4.02, 4.02, 4.02, 4.02, 4.02, 4.02, 4.02, 4.02, 4.02, 4.02, 4.02, 4.02, 4.02, 4.02, 4.02, 4.02, 4.02, 4.02, 4.02, 4.02, 4.02, 4.02, 4.02, 4.02, 4.02, 4.02, 4.02, 4.02, 4.02, 4.02, 4.02, 4.47, 4.47, 4.47, 4.47, 4.47, 4.47, 4.92, 4.92, 4.92, 4.92, 4.92, 4.92, 4.92, 4.92, 5.36, 5.36, 5.36, 5.36, 5.36, 5.36, 5.36, 5.81, 5.81, 5.81, 5.81, 5.81, 5.81, 5.81, 5.81, 5.81, 5.81, 5.81, 5.81, 5.81, 5.81, 5.81, 5.36, 5.36, 5.36, 5.36, 5.36, 5.36, 5.81, 6.26, 6.26, 5.81, 5.81, 5.81, 5.81, 5.81, 5.81, 5.36, 5.36, 5.36, 5.36, 5.36, 5.36, 4.47, 4.47, 4.47, 4.47, 4.47, 4.47, 4.47, 4.02, 4.02, 4.02, 4.02, 4.02, 4.02, 4.02, 4.02, 4.02, 4.02, 4.02, 4.02, 4.02, 4.02, 4.02, 4.02, 4.02, 3.58, 3.58, 3.58, 3.58, 3.58, 3.58, 3.58, 3.58, 3.58, 4.02, 4.02, 4.02, 4.02, 4.02, 4.02, 4.02, 4.02, 4.47, 4.47, 4.47, 4.47, 4.47, 4.47, 4.92, 4.92, 4.92, 4.92, 4.92, 4.92, 4.92, 4.92, 5.36, 5.36, 5.36, 5.36, 5.36, 5.36, 5.81, 5.81, 5.81, 5.81, 5.81, 5.81, 5.81, 5.81, 5.81, 5.81, 5.81, 5.81, 5.81, 5.81, 5.36, 5.36, 5.36, 5.36, 5.36, 5.36, 5.36, 5.36, 5.36, 5.81, 5.81, 5.81, 5.81, 5.81, 5.81, 5.81, 5.81, 5.36, 5.36, 5.36, 5.36, 5.36, 5.36, 4.02, 4.02, 4.02, 4.02, 4.02, 4.02, 4.02, 4.02, 4.02, 4.02, 4.02, 4.02, 4.02, 4.02, 4.02, 4.02, 4.02, 4.02, 4.02, 4.02, 4.02, 4.02, 3.58, 3.58, 3.58, 3.58, 3.58, 3.58, 3.58, 3.58, 3.58, 3.58, 3.58, 3.58, 4.02, 4.02, 4.02, 4.02, 4.02, 4.02, 4.02, 4.47, 4.47, 4.47, 4.47, 4.47, 4.47, 4.92, 4.92, 4.92, 4.92, 4.92, 4.92, 4.92, 4.92, 5.36, 5.36, 5.36, 5.36, 5.36, 5.36, 5.81, 5.81, 5.81, 5.81, 5.81, 5.81, 5.81, 5.81, 5.81, 5.81, 5.81, 5.81, 5.81, 5.81, 5.36, 5.36, 5.36, 5.36, 5.36, 5.81, 5.81, 5.36, 5.36, 5.81, 5.81, 5.81, 5.81, 5.81, 5.81, 5.81, 5.81, 5.81, 5.36, 5.36, 5.36, 5.36, 5.36, 4.02, 4.02, 4.02, 4.02, 4.02, 4.02, 4.02, 4.02, 4.02, 4.02, 4.02, 4.02, 4.02, 4.02, 4.02, 4.02, 4.02, 4.02, 4.02, 3.58, 3.58, 3.58, 3.58, 3.58, 3.58, 3.58, 3.58, 3.58, 3.58, 3.58, 3.58, 3.58, 3.58, 3.58, 3.58, 4.02, 4.02, 4.02, 4.02, 4.02, 4.02, 4.47, 4.47, 4.47, 4.47, 4.47, 4.47, 4.47, 4.92, 4.92, 4.92, 4.92, 4.92, 4.92, 4.92, 5.36, 5.36, 5.36, 5.36, 5.36, 5.81, 5.81, 5.81, 5.81, 5.81, 5.81, 5.81, 5.81, 5.81, 5.81, 5.81, 5.81, 5.81, 5.81, 5.81, 5.81, 5.81, 5.36, 5.81, 5.81, 5.81, 5.81, 5.36, 5.36, 5.36, 5.81, 5.81, 5.81, 5.81, 5.81, 5.81, 5.81, 5.81, 5.36, 5.36, 5.36, 5.36, 5.36, 4.02, 4.02, 4.02, 4.02, 4.02, 4.02, 4.02, 4.02, 4.02, 4.02, 4.02, 4.02, 4.02, 4.02, 4.02, 4.02, 3.58, 3.58, 3.58, 3.58, 3.58, 3.58, 3.58, 3.58, 3.58, 3.58, 3.58, 3.58, 3.58, 3.58, 3.58, 3.58, 3.58, 3.58, 3.58, 4.02, 4.02, 4.02, 4.02, 4.02, 4.02, 4.02, 4.47, 4.47, 4.47, 4.47, 4.47, 4.47, 4.92, 4.92, 4.92, 4.92, 4.92, 4.92, 4.92, 5.36, 5.36, 5.36, 5.36, 5.36, 5.81, 5.81, 5.81, 5.81, 5.81, 5.81, 5.81, 5.81, 5.81, 5.81, 5.81, 5.81, 5.81, 5.81, 5.81, 5.81, 5.81, 5.81, 5.81, 5.81, 5.81, 5.81, 5.36, 5.36, 5.36, 5.81, 5.81, 5.81, 5.81, 5.81, 5.81, 5.81, 5.81, 5.36, 5.36, 5.36, 5.36, 5.36, 4.02, 4.02, 4.02, 4.02, 4.02, 4.02, 4.02, 4.02, 4.02, 4.02, 4.02, 4.02, 3.58, 3.58, 3.58, 3.58, 3.58, 3.58, 3.58, 3.58, 3.58, 3.58, 3.58, 3.58, 3.58, 3.58, 3.58, 3.58, 3.58, 3.58, 3.58, 3.58, 3.58, 3.58, 3.58, 4.02, 4.02, 4.02, 4.02, 4.02, 4.02, 4.02, 4.47, 4.47, 4.47, 4.47, 4.47, 4.92, 4.92, 4.92, 4.92, 4.92, 4.92, 4.92, 5.36, 5.36, 5.36, 5.36, 5.36, 5.81, 5.81, 5.81, 5.81, 5.81, 5.81, 5.81, 5.81, 5.81, 5.81, 5.81, 5.81, 5.81, 5.81, 5.81, 5.81, 5.81, 5.81, 5.36, 5.36, 5.81, 5.81, 5.81, 5.36, 5.36, 4.92, 5.81, 5.81, 5.81, 5.81, 5.81, 5.81, 5.81, 5.81, 5.81, 5.36, 5.36, 5.36, 5.36, 4.02, 4.02, 4.02, 4.02, 4.02, 4.02, 4.02, 4.02, 4.02, 4.02, 4.02, 4.02, 3.58, 3.58, 3.58, 3.58, 3.58, 3.58, 3.58, 3.58, 3.58, 3.58, 3.58, 3.58, 3.58, 3.58, 3.58, 3.58, 3.58, 3.58, 3.58, 3.58, 3.58, 3.58, 3.58, 4.02, 4.02, 4.02, 4.02, 4.02, 4.02, 4.02, 4.47, 4.47, 4.47, 4.47, 4.47, 4.92, 4.92, 4.92, 4.92, 4.92, 4.92, 4.92, 5.36, 5.36, 5.36, 5.36, 5.36, 5.81, 5.81, 5.81, 5.81, 5.81, 5.81, 5.81, 5.81, 5.81, 5.81, 5.81, 5.81, 5.81, 5.81, 5.81, 5.81, 5.81, 5.81, 5.36, 5.36, 5.81, 5.81, 5.81, 5.36, 5.36, 4.92, 5.36, 5.81, 5.81, 5.81, 5.81, 5.36, 5.81, 5.81, 5.81, 5.36, 5.36, 5.36, 5.36]}]